Time,TemperatureF,DewpointF,PressureIn,WindDirection,WindDirectionDegrees,WindSpeedMPH,WindSpeedGustMPH,Humidity,HourlyPrecipIn,Conditions,Clouds,dailyrainin,SoftwareType,DateUTC
2014-03-03 00:01:00,16.6,13.9,30.30,NNE,19,2.0,6.0,89,0.00,,,0.00,Wunderground v.1.15,2014-03-03 05:01:00,
2014-03-03 00:02:00,16.7,14.0,30.30,North,360,3.0,6.0,89,0.00,,,0.00,Wunderground v.1.15,2014-03-03 05:02:00,
2014-03-03 00:04:00,16.6,13.9,30.30,North,355,8.0,8.0,89,0.00,,,0.00,Wunderground v.1.15,2014-03-03 05:04:00,
2014-03-03 00:06:00,16.6,14.2,30.30,North,355,3.0,8.0,90,0.00,,,0.00,Wunderground v.1.15,2014-03-03 05:06:00,
2014-03-03 00:07:00,16.6,14.2,30.29,North,355,4.0,8.0,90,0.00,,,0.00,Wunderground v.1.15,2014-03-03 05:07:00,
2014-03-03 00:08:00,16.6,14.2,30.29,North,5,2.0,8.0,90,0.00,,,0.00,Wunderground v.1.15,2014-03-03 05:08:00,
2014-03-03 00:09:00,16.6,14.2,30.29,NE,36,6.0,8.0,90,0.00,,,0.00,Wunderground v.1.15,2014-03-03 05:09:00,
2014-03-03 00:10:00,16.6,13.9,30.29,NNE,22,4.0,4.0,89,0.00,,,0.00,Wunderground v.1.15,2014-03-03 05:10:00,
2014-03-03 00:11:00,16.6,13.9,30.29,NNE,16,5.0,5.0,89,0.00,,,0.00,Wunderground v.1.15,2014-03-03 05:11:00,
2014-03-03 00:12:00,16.6,13.9,30.29,NNE,19,3.0,5.0,89,0.00,,,0.00,Wunderground v.1.15,2014-03-03 05:12:00,
2014-03-03 00:15:00,16.6,13.9,30.29,NNE,16,3.0,6.0,89,0.00,,,0.00,Wunderground v.1.15,2014-03-03 05:15:00,
2014-03-03 00:17:00,16.6,13.9,30.29,NNE,19,4.0,6.0,89,0.00,,,0.00,Wunderground v.1.15,2014-03-03 05:17:00,
2014-03-03 00:19:00,16.6,13.9,30.29,North,5,4.0,6.0,89,0.00,,,0.00,Wunderground v.1.15,2014-03-03 05:19:00,
2014-03-03 00:21:00,16.6,13.9,30.29,NNW,340,3.0,4.0,89,0.00,,,0.00,Wunderground v.1.15,2014-03-03 05:21:00,
2014-03-03 00:22:00,16.6,13.9,30.29,NNW,340,3.0,4.0,89,0.00,,,0.00,Wunderground v.1.15,2014-03-03 05:22:00,
2014-03-03 00:24:00,16.6,13.9,30.29,North,360,2.0,4.0,89,0.00,,,0.00,Wunderground v.1.15,2014-03-03 05:24:00,
2014-03-03 00:25:00,16.6,14.2,30.29,North,360,3.0,4.0,90,0.00,,,0.00,Wunderground v.1.15,2014-03-03 05:25:00,
2014-03-03 00:27:00,16.6,13.9,30.29,North,360,1.0,4.0,89,0.00,,,0.00,Wunderground v.1.15,2014-03-03 05:27:00,
2014-03-03 00:28:00,16.6,13.9,30.29,North,360,3.0,4.0,89,0.00,,,0.00,Wunderground v.1.15,2014-03-03 05:28:00,
2014-03-03 00:30:00,16.6,13.9,30.29,North,9,2.0,3.0,89,0.00,,,0.00,Wunderground v.1.15,2014-03-03 05:30:00,
2014-03-03 00:31:00,16.6,13.9,30.29,NNE,24,4.0,4.0,89,0.00,,,0.00,Wunderground v.1.15,2014-03-03 05:31:00,
2014-03-03 00:35:00,16.5,13.8,30.29,NNE,16,3.0,7.0,89,0.00,,,0.00,Wunderground v.1.15,2014-03-03 05:35:00,
2014-03-03 00:36:00,16.5,13.8,30.29,NNE,15,4.0,7.0,89,0.00,,,0.00,Wunderground v.1.15,2014-03-03 05:36:00,
2014-03-03 00:38:00,16.5,13.8,30.29,North,5,3.0,7.0,89,0.00,,,0.00,Wunderground v.1.15,2014-03-03 05:38:00,
2014-03-03 00:40:00,16.5,13.8,30.29,NNW,346,6.0,6.0,89,0.00,,,0.00,Wunderground v.1.15,2014-03-03 05:40:00,
2014-03-03 00:41:00,16.5,13.8,30.29,NNW,346,5.0,6.0,89,0.00,,,0.00,Wunderground v.1.15,2014-03-03 05:41:00,
2014-03-03 00:42:00,16.5,13.8,30.29,NNW,348,6.0,6.0,89,0.00,,,0.00,Wunderground v.1.15,2014-03-03 05:42:00,
2014-03-03 00:43:00,16.5,13.8,30.29,NNW,332,5.0,6.0,89,0.00,,,0.00,Wunderground v.1.15,2014-03-03 05:43:00,
2014-03-03 00:44:00,16.5,13.8,30.29,North,5,4.0,6.0,89,0.00,,,0.00,Wunderground v.1.15,2014-03-03 05:44:00,
2014-03-03 00:46:00,16.5,14.1,30.29,North,350,5.0,6.0,90,0.00,,,0.00,Wunderground v.1.15,2014-03-03 05:46:00,
2014-03-03 00:50:00,16.4,14.0,30.29,NNE,22,5.0,5.0,90,0.00,,,0.00,Wunderground v.1.15,2014-03-03 05:50:00,
2014-03-03 00:51:00,16.4,14.0,30.29,North,9,4.0,5.0,90,0.00,,,0.00,Wunderground v.1.15,2014-03-03 05:51:00,
2014-03-03 00:52:00,16.4,14.0,30.29,NNE,25,4.0,5.0,90,0.00,,,0.00,Wunderground v.1.15,2014-03-03 05:52:00,
2014-03-03 00:53:00,16.4,14.0,30.29,NNE,19,5.0,5.0,90,0.00,,,0.00,Wunderground v.1.15,2014-03-03 05:53:00,
2014-03-03 00:55:00,16.4,14.0,30.30,NNE,15,5.0,5.0,90,0.00,,,0.00,Wunderground v.1.15,2014-03-03 05:55:00,
2014-03-03 00:56:00,16.4,14.0,30.30,North,5,3.0,5.0,90,0.00,,,0.00,Wunderground v.1.15,2014-03-03 05:56:00,
2014-03-03 00:57:00,16.4,14.0,30.29,NNW,342,5.0,5.0,90,0.00,,,0.00,Wunderground v.1.15,2014-03-03 05:57:00,
2014-03-03 01:00:00,16.4,14.0,30.30,North,350,4.0,5.0,90,0.00,,,0.00,Wunderground v.1.15,2014-03-03 06:00:00,
2014-03-03 01:02:00,16.4,14.0,30.29,NNE,24,6.0,6.0,90,0.00,,,0.00,Wunderground v.1.15,2014-03-03 06:02:00,
2014-03-03 01:04:00,16.3,13.9,30.29,NNW,342,4.0,6.0,90,0.00,,,0.00,Wunderground v.1.15,2014-03-03 06:04:00,
2014-03-03 01:06:00,16.3,13.9,30.29,NNE,15,3.0,6.0,90,0.00,,,0.00,Wunderground v.1.15,2014-03-03 06:06:00,
2014-03-03 01:07:00,16.3,13.9,30.29,NNE,29,3.0,6.0,90,0.00,,,0.00,Wunderground v.1.15,2014-03-03 06:07:00,
2014-03-03 01:12:00,16.3,13.9,30.29,NNE,18,3.0,4.0,90,0.00,,,0.00,Wunderground v.1.15,2014-03-03 06:12:00,
2014-03-03 01:13:00,16.3,13.9,30.29,NNE,18,3.0,4.0,90,0.00,,,0.00,Wunderground v.1.15,2014-03-03 06:13:00,
2014-03-03 01:18:00,16.3,13.9,30.29,NNE,15,2.0,5.0,90,0.00,,,0.00,Wunderground v.1.15,2014-03-03 06:18:00,
2014-03-03 01:19:00,16.3,13.9,30.29,NNE,15,3.0,5.0,90,0.00,,,0.00,Wunderground v.1.15,2014-03-03 06:19:00,
2014-03-03 01:20:00,16.3,13.9,30.29,NNE,16,2.0,3.0,90,0.00,,,0.00,Wunderground v.1.15,2014-03-03 06:20:00,
2014-03-03 01:22:00,16.2,13.8,30.29,NE,40,3.0,4.0,90,0.00,,,0.00,Wunderground v.1.15,2014-03-03 06:22:00,
2014-03-03 01:24:00,16.2,13.8,30.30,NNE,23,8.0,8.0,90,0.00,,,0.00,Wunderground v.1.15,2014-03-03 06:24:00,
2014-03-03 01:25:00,16.2,13.8,30.30,NNE,16,3.0,8.0,90,0.00,,,0.00,Wunderground v.1.15,2014-03-03 06:25:00,
2014-03-03 01:26:00,16.1,13.7,30.30,NE,36,6.0,8.0,90,0.00,,,0.00,Wunderground v.1.15,2014-03-03 06:26:00,
2014-03-03 01:27:00,16.1,13.7,30.30,North,11,2.0,8.0,90,0.00,,,0.00,Wunderground v.1.15,2014-03-03 06:27:00,
2014-03-03 01:28:00,16.1,13.7,30.30,NNE,15,3.0,8.0,90,0.00,,,0.00,Wunderground v.1.15,2014-03-03 06:28:00,
2014-03-03 01:30:00,16.1,13.7,30.30,NE,38,8.0,8.0,90,0.00,,,0.00,Wunderground v.1.15,2014-03-03 06:30:00,
2014-03-03 01:32:00,16.1,13.7,30.30,NNW,334,4.0,8.0,90,0.00,,,0.00,Wunderground v.1.15,2014-03-03 06:32:00,
2014-03-03 01:34:00,16.1,13.7,30.30,NNE,19,4.0,8.0,90,0.00,,,0.00,Wunderground v.1.15,2014-03-03 06:34:00,
2014-03-03 01:37:00,16.1,13.7,30.30,NNE,29,2.0,8.0,90,0.00,,,0.00,Wunderground v.1.15,2014-03-03 06:37:00,
2014-03-03 01:38:00,16.1,13.7,30.30,NNE,27,4.0,8.0,90,0.00,,,0.00,Wunderground v.1.15,2014-03-03 06:38:00,
2014-03-03 01:40:00,16.0,13.6,30.30,NNE,29,3.0,5.0,90,0.00,,,0.00,Wunderground v.1.15,2014-03-03 06:40:00,
2014-03-03 01:41:00,16.0,13.6,30.30,NNE,29,4.0,5.0,90,0.00,,,0.00,Wunderground v.1.15,2014-03-03 06:41:00,
2014-03-03 01:42:00,16.0,13.6,30.30,NNE,32,3.0,5.0,90,0.00,,,0.00,Wunderground v.1.15,2014-03-03 06:42:00,
2014-03-03 01:43:00,16.0,13.6,30.30,NNE,33,5.0,5.0,90,0.00,,,0.00,Wunderground v.1.15,2014-03-03 06:43:00,
2014-03-03 01:46:00,16.0,13.6,30.30,NNE,19,4.0,5.0,90,0.00,,,0.00,Wunderground v.1.15,2014-03-03 06:46:00,
2014-03-03 01:47:00,16.0,13.6,30.30,NNE,19,5.0,5.0,90,0.00,,,0.00,Wunderground v.1.15,2014-03-03 06:47:00,
2014-03-03 01:49:00,16.0,13.6,30.30,NNE,23,3.0,5.0,90,0.00,,,0.00,Wunderground v.1.15,2014-03-03 06:49:00,
2014-03-03 01:52:00,16.0,13.6,30.30,NNE,17,3.0,7.0,90,0.00,,,0.00,Wunderground v.1.15,2014-03-03 06:52:00,
2014-03-03 01:53:00,16.1,13.7,30.30,NNE,24,2.0,7.0,90,0.00,,,0.00,Wunderground v.1.15,2014-03-03 06:53:00,
2014-03-03 01:54:00,16.1,13.7,30.30,NNE,24,3.0,7.0,90,0.00,,,0.00,Wunderground v.1.15,2014-03-03 06:54:00,
2014-03-03 01:55:00,16.0,13.6,30.30,NNE,22,0.0,7.0,90,0.00,,,0.00,Wunderground v.1.15,2014-03-03 06:55:00,
2014-03-03 01:57:00,16.0,13.6,30.29,NNE,20,4.0,7.0,90,0.00,,,0.00,Wunderground v.1.15,2014-03-03 06:57:00,
2014-03-03 01:59:00,16.0,13.6,30.29,NNW,336,3.0,7.0,90,0.00,,,0.00,Wunderground v.1.15,2014-03-03 06:59:00,
2014-03-03 02:00:00,16.0,13.6,30.29,NNW,347,4.0,4.0,90,0.00,,,0.00,Wunderground v.1.15,2014-03-03 07:00:00,
2014-03-03 02:03:00,16.0,13.6,30.30,NNW,347,3.0,4.0,90,0.00,,,0.00,Wunderground v.1.15,2014-03-03 07:03:00,
2014-03-03 02:04:00,16.0,13.6,30.30,NNW,347,2.0,4.0,90,0.00,,,0.00,Wunderground v.1.15,2014-03-03 07:04:00,
2014-03-03 02:05:00,16.0,13.6,30.30,NNW,339,2.0,5.0,90,0.00,,,0.00,Wunderground v.1.15,2014-03-03 07:05:00,
2014-03-03 02:06:00,16.0,13.6,30.30,NNW,339,5.0,5.0,90,0.00,,,0.00,Wunderground v.1.15,2014-03-03 07:06:00,
2014-03-03 02:09:00,16.0,13.6,30.30,NNE,33,1.0,8.0,90,0.00,,,0.00,Wunderground v.1.15,2014-03-03 07:09:00,
2014-03-03 02:10:00,16.0,13.6,30.29,NNE,27,3.0,6.0,90,0.00,,,0.00,Wunderground v.1.15,2014-03-03 07:10:00,
2014-03-03 02:11:00,16.0,13.6,30.29,NNE,17,4.0,6.0,90,0.00,,,0.00,Wunderground v.1.15,2014-03-03 07:11:00,
2014-03-03 02:14:00,16.0,13.6,30.30,North,355,5.0,7.0,90,0.00,,,0.00,Wunderground v.1.15,2014-03-03 07:14:00,
2014-03-03 02:15:00,16.0,13.6,30.30,NNE,13,4.0,8.0,90,0.00,,,0.00,Wunderground v.1.15,2014-03-03 07:15:00,
2014-03-03 02:16:00,16.0,13.6,30.30,North,10,2.0,8.0,90,0.00,,,0.00,Wunderground v.1.15,2014-03-03 07:16:00,
2014-03-03 02:17:00,16.0,13.6,30.30,North,5,4.0,8.0,90,0.00,,,0.00,Wunderground v.1.15,2014-03-03 07:17:00,
2014-03-03 02:20:00,16.0,13.6,30.30,NNE,19,2.0,4.0,90,0.00,,,0.00,Wunderground v.1.15,2014-03-03 07:20:00,
2014-03-03 02:21:00,16.0,13.6,30.30,NNE,22,2.0,4.0,90,0.00,,,0.00,Wunderground v.1.15,2014-03-03 07:21:00,
2014-03-03 02:22:00,16.0,13.6,30.30,NNE,20,3.0,4.0,90,0.00,,,0.00,Wunderground v.1.15,2014-03-03 07:22:00,
2014-03-03 02:25:00,16.1,13.7,30.30,North,5,3.0,5.0,90,0.00,,,0.00,Wunderground v.1.15,2014-03-03 07:25:00,
2014-03-03 02:26:00,16.0,13.6,30.30,North,5,2.0,5.0,90,0.00,,,0.00,Wunderground v.1.15,2014-03-03 07:26:00,
2014-03-03 02:27:00,16.0,13.6,30.30,North,11,4.0,5.0,90,0.00,,,0.00,Wunderground v.1.15,2014-03-03 07:27:00,
2014-03-03 02:30:00,16.1,13.7,30.30,NNE,13,6.0,6.0,90,0.00,,,0.00,Wunderground v.1.15,2014-03-03 07:30:00,
2014-03-03 02:31:00,16.0,13.6,30.30,North,360,4.0,6.0,90,0.00,,,0.00,Wunderground v.1.15,2014-03-03 07:31:00,
2014-03-03 02:32:00,16.1,13.7,30.30,North,5,3.0,6.0,90,0.00,,,0.00,Wunderground v.1.15,2014-03-03 07:32:00,
2014-03-03 02:35:00,16.1,13.7,30.30,North,360,4.0,6.0,90,0.00,,,0.00,Wunderground v.1.15,2014-03-03 07:35:00,
2014-03-03 02:36:00,16.1,13.7,30.30,North,5,4.0,6.0,90,0.00,,,0.00,Wunderground v.1.15,2014-03-03 07:36:00,
2014-03-03 02:37:00,16.1,13.7,30.30,NNE,18,4.0,6.0,90,0.00,,,0.00,Wunderground v.1.15,2014-03-03 07:37:00,
2014-03-03 02:38:00,16.1,13.7,30.30,NNW,333,1.0,6.0,90,0.00,,,0.00,Wunderground v.1.15,2014-03-03 07:38:00,
2014-03-03 02:40:00,16.2,13.5,30.30,North,10,4.0,4.0,89,0.00,,,0.00,Wunderground v.1.15,2014-03-03 07:40:00,
2014-03-03 02:41:00,16.2,13.8,30.30,NNE,22,4.0,6.0,90,0.00,,,0.00,Wunderground v.1.15,2014-03-03 07:41:00,
2014-03-03 02:42:00,16.2,13.8,30.30,NW,316,5.0,6.0,90,0.00,,,0.00,Wunderground v.1.15,2014-03-03 07:42:00,
2014-03-03 02:44:00,16.2,13.5,30.30,North,349,2.0,6.0,89,0.00,,,0.00,Wunderground v.1.15,2014-03-03 07:44:00,
2014-03-03 02:45:00,16.2,13.5,30.30,NE,55,8.0,8.0,89,0.00,,,0.00,Wunderground v.1.15,2014-03-03 07:45:00,
2014-03-03 02:46:00,16.2,13.5,30.30,NW,326,7.0,9.0,89,0.00,,,0.00,Wunderground v.1.15,2014-03-03 07:46:00,
2014-03-03 02:47:00,16.2,13.5,30.30,NNW,329,5.0,9.0,89,0.00,,,0.00,Wunderground v.1.15,2014-03-03 07:47:00,
2014-03-03 02:50:00,16.3,13.6,30.29,NNE,13,3.0,5.0,89,0.00,,,0.00,Wunderground v.1.15,2014-03-03 07:50:00,
2014-03-03 02:51:00,16.4,13.5,30.29,NE,50,3.0,6.0,88,0.00,,,0.00,Wunderground v.1.15,2014-03-03 07:51:00,
2014-03-03 02:52:00,16.4,13.5,30.29,NNE,29,3.0,6.0,88,0.00,,,0.00,Wunderground v.1.15,2014-03-03 07:52:00,
2014-03-03 02:53:00,16.4,13.5,30.29,NNE,24,1.0,6.0,88,0.00,,,0.00,Wunderground v.1.15,2014-03-03 07:53:00,
2014-03-03 02:55:00,16.4,13.5,30.29,NNE,15,7.0,18.0,88,0.00,,,0.00,Wunderground v.1.15,2014-03-03 07:55:00,
2014-03-03 02:56:00,16.4,13.5,30.29,North,349,8.0,18.0,88,0.00,,,0.00,Wunderground v.1.15,2014-03-03 07:56:00,
2014-03-03 02:57:00,16.4,13.5,30.29,NNW,336,7.0,18.0,88,0.00,,,0.00,Wunderground v.1.15,2014-03-03 07:57:00,
2014-03-03 02:58:00,16.4,13.2,30.29,NNE,17,7.0,18.0,87,0.00,,,0.00,Wunderground v.1.15,2014-03-03 07:58:00,
2014-03-03 03:01:00,16.4,12.9,30.29,NE,36,12.0,12.0,86,0.00,,,0.00,Wunderground v.1.15,2014-03-03 08:01:00,
2014-03-03 03:02:00,16.5,13.0,30.29,NNW,336,8.0,13.0,86,0.00,,,0.00,Wunderground v.1.15,2014-03-03 08:02:00,
2014-03-03 03:03:00,16.5,13.0,30.29,North,5,4.0,13.0,86,0.00,,,0.00,Wunderground v.1.15,2014-03-03 08:03:00,
2014-03-03 03:06:00,16.5,12.8,30.30,NNE,13,13.0,13.0,85,0.00,,,0.00,Wunderground v.1.15,2014-03-03 08:06:00,
2014-03-03 03:07:00,16.4,12.7,30.30,NNE,19,5.0,17.0,85,0.00,,,0.00,Wunderground v.1.15,2014-03-03 08:07:00,
2014-03-03 03:09:00,16.4,12.7,30.29,North,355,4.0,17.0,85,0.00,,,0.00,Wunderground v.1.15,2014-03-03 08:09:00,
2014-03-03 03:11:00,16.4,12.4,30.30,NNE,26,6.0,9.0,84,0.00,,,0.00,Wunderground v.1.15,2014-03-03 08:11:00,
2014-03-03 03:12:00,16.4,12.4,30.30,NE,34,5.0,9.0,84,0.00,,,0.00,Wunderground v.1.15,2014-03-03 08:12:00,
2014-03-03 03:13:00,16.4,12.4,30.30,NNW,336,6.0,9.0,84,0.00,,,0.00,Wunderground v.1.15,2014-03-03 08:13:00,
2014-03-03 03:14:00,16.4,12.4,30.29,NE,44,9.0,9.0,84,0.00,,,0.00,Wunderground v.1.15,2014-03-03 08:14:00,
2014-03-03 03:16:00,16.3,12.3,30.29,NNE,30,16.0,16.0,84,0.00,,,0.00,Wunderground v.1.15,2014-03-03 08:16:00,
2014-03-03 03:17:00,16.3,12.3,30.29,NNE,16,4.0,17.0,84,0.00,,,0.00,Wunderground v.1.15,2014-03-03 08:17:00,
2014-03-03 03:18:00,16.3,12.3,30.29,NNE,27,10.0,17.0,84,0.00,,,0.00,Wunderground v.1.15,2014-03-03 08:18:00,
2014-03-03 03:19:00,16.3,12.3,30.29,NNE,23,11.0,17.0,84,0.00,,,0.00,Wunderground v.1.15,2014-03-03 08:19:00,
2014-03-03 03:21:00,16.3,12.0,30.29,NNE,26,5.0,7.0,83,0.00,,,0.00,Wunderground v.1.15,2014-03-03 08:21:00,
2014-03-03 03:22:00,16.3,12.0,30.29,NNE,16,4.0,10.0,83,0.00,,,0.00,Wunderground v.1.15,2014-03-03 08:22:00,
2014-03-03 03:23:00,16.3,12.0,30.29,North,5,5.0,10.0,83,0.00,,,0.00,Wunderground v.1.15,2014-03-03 08:23:00,
2014-03-03 03:25:00,16.2,11.9,30.29,NNE,15,6.0,12.0,83,0.00,,,0.00,Wunderground v.1.15,2014-03-03 08:25:00,
2014-03-03 03:27:00,16.2,11.9,30.29,NNE,15,4.0,12.0,83,0.00,,,0.00,Wunderground v.1.15,2014-03-03 08:27:00,
2014-03-03 03:28:00,16.2,11.9,30.29,NNE,12,3.0,12.0,83,0.00,,,0.00,Wunderground v.1.15,2014-03-03 08:28:00,
2014-03-03 03:29:00,16.2,11.9,30.29,NNE,33,5.0,12.0,83,0.00,,,0.00,Wunderground v.1.15,2014-03-03 08:29:00,
2014-03-03 03:30:00,16.2,11.9,30.29,NNE,28,4.0,12.0,83,0.00,,,0.00,Wunderground v.1.15,2014-03-03 08:30:00,
2014-03-03 03:32:00,16.2,11.9,30.29,NE,34,1.0,12.0,83,0.00,,,0.00,Wunderground v.1.15,2014-03-03 08:32:00,
2014-03-03 03:33:00,16.2,11.9,30.29,North,360,4.0,12.0,83,0.00,,,0.00,Wunderground v.1.15,2014-03-03 08:33:00,
2014-03-03 03:34:00,16.2,11.9,30.29,NE,38,6.0,12.0,83,0.00,,,0.00,Wunderground v.1.15,2014-03-03 08:34:00,
2014-03-03 03:35:00,16.2,11.9,30.29,NNE,24,4.0,12.0,83,0.00,,,0.00,Wunderground v.1.15,2014-03-03 08:35:00,
2014-03-03 03:36:00,16.2,11.9,30.29,NNE,19,8.0,12.0,83,0.00,,,0.00,Wunderground v.1.15,2014-03-03 08:36:00,
2014-03-03 03:38:00,16.2,11.9,30.29,NE,38,8.0,14.0,83,0.00,,,0.00,Wunderground v.1.15,2014-03-03 08:38:00,
2014-03-03 03:39:00,16.2,11.9,30.29,NE,46,11.0,14.0,83,0.00,,,0.00,Wunderground v.1.15,2014-03-03 08:39:00,
2014-03-03 03:40:00,16.2,11.9,30.29,North,5,5.0,6.0,83,0.00,,,0.00,Wunderground v.1.15,2014-03-03 08:40:00,
2014-03-03 03:41:00,16.2,11.9,30.30,NNE,18,3.0,6.0,83,0.00,,,0.00,Wunderground v.1.15,2014-03-03 08:41:00,
2014-03-03 03:44:00,16.1,11.8,30.30,NNE,24,4.0,8.0,83,0.00,,,0.00,Wunderground v.1.15,2014-03-03 08:44:00,
2014-03-03 03:45:00,16.1,11.8,30.30,NNE,19,5.0,8.0,83,0.00,,,0.00,Wunderground v.1.15,2014-03-03 08:45:00,
2014-03-03 03:46:00,16.1,11.8,30.30,NE,44,6.0,8.0,83,0.00,,,0.00,Wunderground v.1.15,2014-03-03 08:46:00,
2014-03-03 03:47:00,16.1,11.8,30.30,North,11,6.0,8.0,83,0.00,,,0.00,Wunderground v.1.15,2014-03-03 08:47:00,
2014-03-03 03:49:00,16.1,11.8,30.30,NNE,28,5.0,8.0,83,0.00,,,0.00,Wunderground v.1.15,2014-03-03 08:49:00,
2014-03-03 03:50:00,16.1,11.8,30.30,NNE,16,6.0,9.0,83,0.00,,,0.00,Wunderground v.1.15,2014-03-03 08:50:00,
2014-03-03 03:51:00,16.1,11.8,30.29,NE,47,4.0,9.0,83,0.00,,,0.00,Wunderground v.1.15,2014-03-03 08:51:00,
2014-03-03 03:52:00,16.1,11.8,30.29,NNE,14,9.0,10.0,83,0.00,,,0.00,Wunderground v.1.15,2014-03-03 08:52:00,
2014-03-03 03:54:00,16.0,11.7,30.30,NNE,17,9.0,10.0,83,0.00,,,0.00,Wunderground v.1.15,2014-03-03 08:54:00,
2014-03-03 03:55:00,16.0,11.7,30.30,NE,35,3.0,10.0,83,0.00,,,0.00,Wunderground v.1.15,2014-03-03 08:55:00,
2014-03-03 03:56:00,16.0,11.7,30.30,NNE,31,3.0,10.0,83,0.00,,,0.00,Wunderground v.1.15,2014-03-03 08:56:00,
2014-03-03 03:57:00,16.0,11.7,30.30,NNE,14,7.0,10.0,83,0.00,,,0.00,Wunderground v.1.15,2014-03-03 08:57:00,
2014-03-03 03:59:00,16.0,11.7,30.30,NNE,19,3.0,10.0,83,0.00,,,0.00,Wunderground v.1.15,2014-03-03 08:59:00,
2014-03-03 04:00:00,16.0,11.7,30.30,NNE,31,5.0,6.0,83,0.00,,,0.00,Wunderground v.1.15,2014-03-03 09:00:00,
2014-03-03 04:02:00,16.0,11.7,30.30,NNE,28,12.0,14.0,83,0.00,,,0.00,Wunderground v.1.15,2014-03-03 09:02:00,
2014-03-03 04:04:00,15.9,11.4,30.29,NE,52,9.0,17.0,82,0.00,,,0.00,Wunderground v.1.15,2014-03-03 09:04:00,
2014-03-03 04:05:00,15.9,11.4,30.30,NNW,338,4.0,17.0,82,0.00,,,0.00,Wunderground v.1.15,2014-03-03 09:05:00,
2014-03-03 04:06:00,15.9,11.4,30.30,NE,43,6.0,17.0,82,0.00,,,0.00,Wunderground v.1.15,2014-03-03 09:06:00,
2014-03-03 04:07:00,15.9,11.4,30.30,NNE,23,7.0,17.0,82,0.00,,,0.00,Wunderground v.1.15,2014-03-03 09:07:00,
2014-03-03 04:08:00,15.9,11.4,30.30,NNW,331,5.0,17.0,82,0.00,,,0.00,Wunderground v.1.15,2014-03-03 09:08:00,
2014-03-03 04:09:00,15.9,11.4,30.30,North,351,5.0,17.0,82,0.00,,,0.00,Wunderground v.1.15,2014-03-03 09:09:00,
2014-03-03 04:11:00,15.8,11.3,30.30,NNE,22,2.0,7.0,82,0.00,,,0.00,Wunderground v.1.15,2014-03-03 09:11:00,
2014-03-03 04:12:00,15.9,11.4,30.30,NNE,17,9.0,10.0,82,0.00,,,0.00,Wunderground v.1.15,2014-03-03 09:12:00,
2014-03-03 04:13:00,15.8,11.3,30.30,NNE,28,5.0,10.0,82,0.00,,,0.00,Wunderground v.1.15,2014-03-03 09:13:00,
2014-03-03 04:14:00,15.8,11.3,30.30,NNW,338,3.0,10.0,82,0.00,,,0.00,Wunderground v.1.15,2014-03-03 09:14:00,
2014-03-03 04:17:00,15.8,11.3,30.30,North,360,6.0,10.0,82,0.00,,,0.00,Wunderground v.1.15,2014-03-03 09:17:00,
2014-03-03 04:18:00,15.7,11.2,30.30,North,9,6.0,14.0,82,0.00,,,0.00,Wunderground v.1.15,2014-03-03 09:18:00,
2014-03-03 04:19:00,15.7,11.2,30.30,NNW,344,7.0,14.0,82,0.00,,,0.00,Wunderground v.1.15,2014-03-03 09:19:00,
2014-03-03 04:22:00,15.6,11.1,30.30,North,5,6.0,11.0,82,0.00,,,0.00,Wunderground v.1.15,2014-03-03 09:22:00,
2014-03-03 04:23:00,15.6,11.1,30.30,NE,47,7.0,11.0,82,0.00,,,0.00,Wunderground v.1.15,2014-03-03 09:23:00,
2014-03-03 04:24:00,15.6,11.1,30.30,NNE,31,5.0,11.0,82,0.00,,,0.00,Wunderground v.1.15,2014-03-03 09:24:00,
2014-03-03 04:27:00,15.5,11.0,30.31,North,360,5.0,14.0,82,0.00,,,0.00,Wunderground v.1.15,2014-03-03 09:27:00,
2014-03-03 04:28:00,15.5,11.0,30.31,North,355,7.0,14.0,82,0.00,,,0.00,Wunderground v.1.15,2014-03-03 09:28:00,
2014-03-03 04:29:00,15.5,11.0,30.31,NNE,19,8.0,14.0,82,0.00,,,0.00,Wunderground v.1.15,2014-03-03 09:29:00,
2014-03-03 04:33:00,15.5,10.7,30.30,NE,34,8.0,11.0,81,0.00,,,0.00,Wunderground v.1.15,2014-03-03 09:33:00,
2014-03-03 04:34:00,15.4,10.6,30.30,NE,46,5.0,12.0,81,0.00,,,0.00,Wunderground v.1.15,2014-03-03 09:34:00,
2014-03-03 04:38:00,15.3,10.5,30.30,NNE,16,12.0,13.0,81,0.00,,,0.00,Wunderground v.1.15,2014-03-03 09:38:00,
2014-03-03 04:39:00,15.3,10.5,30.30,NNE,22,15.0,15.0,81,0.00,,,0.00,Wunderground v.1.15,2014-03-03 09:39:00,
2014-03-03 04:40:00,15.3,10.2,30.30,North,10,5.0,9.0,80,0.00,,,0.00,Wunderground v.1.15,2014-03-03 09:40:00,
2014-03-03 04:43:00,15.3,10.2,30.31,NNW,340,6.0,15.0,80,0.00,,,0.00,Wunderground v.1.15,2014-03-03 09:43:00,
2014-03-03 04:44:00,15.2,10.4,30.31,NE,53,3.0,15.0,81,0.00,,,0.00,Wunderground v.1.15,2014-03-03 09:44:00,
2014-03-03 04:45:00,15.2,10.4,30.31,North,5,7.0,15.0,81,0.00,,,0.00,Wunderground v.1.15,2014-03-03 09:45:00,
2014-03-03 04:46:00,15.2,10.4,30.31,NNE,13,9.0,15.0,81,0.00,,,0.00,Wunderground v.1.15,2014-03-03 09:46:00,
2014-03-03 04:48:00,15.2,10.4,30.32,NNE,15,8.0,15.0,81,0.00,,,0.00,Wunderground v.1.15,2014-03-03 09:48:00,
2014-03-03 04:49:00,15.2,10.1,30.32,North,355,6.0,15.0,80,0.00,,,0.00,Wunderground v.1.15,2014-03-03 09:49:00,
2014-03-03 04:50:00,15.2,10.1,30.32,NE,40,12.0,12.0,80,0.00,,,0.00,Wunderground v.1.15,2014-03-03 09:50:00,
2014-03-03 04:52:00,15.1,10.0,30.32,NE,35,8.0,13.0,80,0.00,,,0.00,Wunderground v.1.15,2014-03-03 09:52:00,
2014-03-03 04:53:00,15.1,10.0,30.32,NNE,15,6.0,13.0,80,0.00,,,0.00,Wunderground v.1.15,2014-03-03 09:53:00,
2014-03-03 04:55:00,15.1,10.0,30.32,NNW,348,6.0,13.0,80,0.00,,,0.00,Wunderground v.1.15,2014-03-03 09:55:00,
2014-03-03 04:57:00,15.0,9.9,30.32,NNE,12,6.0,13.0,80,0.00,,,0.00,Wunderground v.1.15,2014-03-03 09:57:00,
2014-03-03 04:58:00,15.0,9.9,30.32,NNE,12,3.0,13.0,80,0.00,,,0.00,Wunderground v.1.15,2014-03-03 09:58:00,
2014-03-03 05:00:00,15.0,9.9,30.32,NW,321,4.0,7.0,80,0.00,,,0.00,Wunderground v.1.15,2014-03-03 10:00:00,
2014-03-03 05:01:00,15.0,9.9,30.32,NNE,15,9.0,9.0,80,0.00,,,0.00,Wunderground v.1.15,2014-03-03 10:01:00,
2014-03-03 05:02:00,15.0,9.9,30.32,NNE,15,6.0,13.0,80,0.00,,,0.00,Wunderground v.1.15,2014-03-03 10:02:00,
2014-03-03 05:05:00,14.9,9.8,30.33,NNE,24,3.0,16.0,80,0.00,,,0.00,Wunderground v.1.15,2014-03-03 10:05:00,
2014-03-03 05:06:00,14.9,9.6,30.32,NE,46,9.0,16.0,79,0.00,,,0.00,Wunderground v.1.15,2014-03-03 10:06:00,
2014-03-03 05:08:00,14.8,9.5,30.32,NNW,342,7.0,16.0,79,0.00,,,0.00,Wunderground v.1.15,2014-03-03 10:08:00,
2014-03-03 05:10:00,14.8,9.5,30.32,ENE,73,12.0,14.0,79,0.00,,,0.00,Wunderground v.1.15,2014-03-03 10:10:00,
2014-03-03 05:11:00,14.8,9.5,30.32,North,11,16.0,18.0,79,0.00,,,0.00,Wunderground v.1.15,2014-03-03 10:11:00,
2014-03-03 05:13:00,14.7,9.4,30.32,NE,45,8.0,18.0,79,0.00,,,0.00,Wunderground v.1.15,2014-03-03 10:13:00,
2014-03-03 05:16:00,14.6,9.3,30.31,NE,49,8.0,18.0,79,0.00,,,0.00,Wunderground v.1.15,2014-03-03 10:16:00,
2014-03-03 05:18:00,14.6,9.3,30.31,NNE,17,6.0,18.0,79,0.00,,,0.00,Wunderground v.1.15,2014-03-03 10:18:00,
2014-03-03 05:21:00,14.5,9.2,30.32,NNW,346,5.0,12.0,79,0.00,,,0.00,Wunderground v.1.15,2014-03-03 10:21:00,
2014-03-03 05:24:00,14.5,9.2,30.32,NNE,17,5.0,12.0,79,0.00,,,0.00,Wunderground v.1.15,2014-03-03 10:24:00,
2014-03-03 05:26:00,14.5,8.9,30.32,NNE,32,14.0,14.0,78,0.00,,,0.00,Wunderground v.1.15,2014-03-03 10:26:00,
2014-03-03 05:27:00,14.5,8.9,30.32,NNE,17,13.0,14.0,78,0.00,,,0.00,Wunderground v.1.15,2014-03-03 10:27:00,
2014-03-03 05:29:00,14.4,8.8,30.32,NNE,25,9.0,14.0,78,0.00,,,0.00,Wunderground v.1.15,2014-03-03 10:29:00,
2014-03-03 05:31:00,14.4,9.1,30.32,North,10,5.0,10.0,79,0.00,,,0.00,Wunderground v.1.15,2014-03-03 10:31:00,
2014-03-03 05:32:00,14.4,9.1,30.32,North,360,6.0,10.0,79,0.00,,,0.00,Wunderground v.1.15,2014-03-03 10:32:00,
2014-03-03 05:34:00,14.4,9.1,30.32,NE,49,6.0,10.0,79,0.00,,,0.00,Wunderground v.1.15,2014-03-03 10:34:00,
2014-03-03 05:36:00,14.4,8.8,30.32,ENE,67,7.0,13.0,78,0.00,,,0.00,Wunderground v.1.15,2014-03-03 10:36:00,
2014-03-03 05:37:00,14.4,8.8,30.33,NNW,344,2.0,13.0,78,0.00,,,0.00,Wunderground v.1.15,2014-03-03 10:37:00,
2014-03-03 05:39:00,14.3,8.7,30.33,NNE,19,6.0,13.0,78,0.00,,,0.00,Wunderground v.1.15,2014-03-03 10:39:00,
2014-03-03 05:41:00,14.3,8.7,30.33,NE,48,5.0,10.0,78,0.00,,,0.00,Wunderground v.1.15,2014-03-03 10:41:00,
2014-03-03 05:42:00,14.3,8.7,30.33,NE,40,9.0,11.0,78,0.00,,,0.00,Wunderground v.1.15,2014-03-03 10:42:00,
2014-03-03 05:44:00,14.3,8.7,30.33,NNE,14,5.0,14.0,78,0.00,,,0.00,Wunderground v.1.15,2014-03-03 10:44:00,
2014-03-03 05:46:00,14.2,8.6,30.33,NE,53,6.0,14.0,78,0.00,,,0.00,Wunderground v.1.15,2014-03-03 10:46:00,
2014-03-03 05:47:00,14.2,8.6,30.33,North,351,6.0,14.0,78,0.00,,,0.00,Wunderground v.1.15,2014-03-03 10:47:00,
2014-03-03 05:48:00,14.2,8.6,30.33,NNE,19,8.0,14.0,78,0.00,,,0.00,Wunderground v.1.15,2014-03-03 10:48:00,
2014-03-03 05:49:00,14.1,8.5,30.33,NNE,25,7.0,14.0,78,0.00,,,0.00,Wunderground v.1.15,2014-03-03 10:49:00,
2014-03-03 05:52:00,14.1,8.5,30.33,NNE,15,11.0,11.0,78,0.00,,,0.00,Wunderground v.1.15,2014-03-03 10:52:00,
2014-03-03 05:53:00,14.1,8.5,30.33,NNE,19,6.0,14.0,78,0.00,,,0.00,Wunderground v.1.15,2014-03-03 10:53:00,
2014-03-03 05:54:00,14.1,8.5,30.33,NE,35,3.0,14.0,78,0.00,,,0.00,Wunderground v.1.15,2014-03-03 10:54:00,
2014-03-03 05:55:00,14.1,8.5,30.33,NNE,19,7.0,14.0,78,0.00,,,0.00,Wunderground v.1.15,2014-03-03 10:55:00,
2014-03-03 05:57:00,14.1,8.5,30.33,NNE,15,2.0,14.0,78,0.00,,,0.00,Wunderground v.1.15,2014-03-03 10:57:00,
2014-03-03 05:58:00,14.1,8.5,30.33,NNE,16,3.0,14.0,78,0.00,,,0.00,Wunderground v.1.15,2014-03-03 10:58:00,
2014-03-03 05:59:00,14.1,8.8,30.33,NE,40,6.0,14.0,79,0.00,,,0.00,Wunderground v.1.15,2014-03-03 10:59:00,
2014-03-03 06:00:00,14.1,8.5,30.33,NNE,22,6.0,8.0,78,0.00,,,0.00,Wunderground v.1.15,2014-03-03 11:00:00,
2014-03-03 06:02:00,14.0,8.4,30.33,North,11,5.0,9.0,78,0.00,,,0.00,Wunderground v.1.15,2014-03-03 11:02:00,
2014-03-03 06:03:00,14.0,8.4,30.33,NNE,19,7.0,10.0,78,0.00,,,0.00,Wunderground v.1.15,2014-03-03 11:03:00,
2014-03-03 06:04:00,14.0,8.4,30.33,North,5,5.0,11.0,78,0.00,,,0.00,Wunderground v.1.15,2014-03-03 11:04:00,
2014-03-03 06:06:00,14.0,8.4,30.33,NE,56,13.0,16.0,78,0.00,,,0.00,Wunderground v.1.15,2014-03-03 11:06:00,
2014-03-03 06:07:00,14.0,8.1,30.33,NNW,345,8.0,16.0,77,0.00,,,0.00,Wunderground v.1.15,2014-03-03 11:07:00,
2014-03-03 06:08:00,13.9,8.0,30.33,NNE,15,9.0,16.0,77,0.00,,,0.00,Wunderground v.1.15,2014-03-03 11:08:00,
2014-03-03 06:09:00,13.9,8.0,30.33,NNE,24,11.0,16.0,77,0.00,,,0.00,Wunderground v.1.15,2014-03-03 11:09:00,
2014-03-03 06:11:00,13.9,8.0,30.33,North,5,3.0,10.0,77,0.00,,,0.00,Wunderground v.1.15,2014-03-03 11:11:00,
2014-03-03 06:12:00,13.9,8.0,30.33,NNE,24,6.0,11.0,77,0.00,,,0.00,Wunderground v.1.15,2014-03-03 11:12:00,
2014-03-03 06:13:00,13.8,7.9,30.33,North,355,7.0,12.0,77,0.00,,,0.00,Wunderground v.1.15,2014-03-03 11:13:00,
2014-03-03 06:14:00,13.8,7.9,30.33,North,355,3.0,12.0,77,0.00,,,0.00,Wunderground v.1.15,2014-03-03 11:14:00,
2014-03-03 06:15:00,13.8,7.9,30.33,NNE,28,5.0,12.0,77,0.00,,,0.00,Wunderground v.1.15,2014-03-03 11:15:00,
2014-03-03 06:17:00,13.8,7.9,30.33,North,5,6.0,12.0,77,0.00,,,0.00,Wunderground v.1.15,2014-03-03 11:17:00,
2014-03-03 06:18:00,13.8,7.9,30.34,NE,49,12.0,12.0,77,0.00,,,0.00,Wunderground v.1.15,2014-03-03 11:18:00,
2014-03-03 06:19:00,13.8,7.9,30.34,North,11,8.0,12.0,77,0.00,,,0.00,Wunderground v.1.15,2014-03-03 11:19:00,
2014-03-03 06:20:00,13.7,7.8,30.33,NNE,26,4.0,6.0,77,0.00,,,0.00,Wunderground v.1.15,2014-03-03 11:20:00,
2014-03-03 06:21:00,13.7,7.8,30.34,NNE,31,7.0,7.0,77,0.00,,,0.00,Wunderground v.1.15,2014-03-03 11:21:00,
2014-03-03 06:22:00,13.7,7.8,30.34,NNE,15,4.0,7.0,77,0.00,,,0.00,Wunderground v.1.15,2014-03-03 11:22:00,
2014-03-03 06:23:00,13.7,7.8,30.34,North,11,2.0,7.0,77,0.00,,,0.00,Wunderground v.1.15,2014-03-03 11:23:00,
2014-03-03 06:24:00,13.7,7.8,30.34,North,5,1.0,7.0,77,0.00,,,0.00,Wunderground v.1.15,2014-03-03 11:24:00,
2014-03-03 06:26:00,13.7,8.1,30.34,NNW,340,6.0,8.0,78,0.00,,,0.00,Wunderground v.1.15,2014-03-03 11:26:00,
2014-03-03 06:27:00,13.6,8.0,30.34,NNE,28,6.0,10.0,78,0.00,,,0.00,Wunderground v.1.15,2014-03-03 11:27:00,
2014-03-03 06:28:00,13.6,8.0,30.34,North,355,2.0,10.0,78,0.00,,,0.00,Wunderground v.1.15,2014-03-03 11:28:00,
2014-03-03 06:29:00,13.6,8.0,30.34,NNW,344,3.0,10.0,78,0.00,,,0.00,Wunderground v.1.15,2014-03-03 11:29:00,
2014-03-03 06:31:00,13.6,8.0,30.34,NNW,331,6.0,9.0,78,0.00,,,0.00,Wunderground v.1.15,2014-03-03 11:31:00,
2014-03-03 06:32:00,13.5,7.9,30.34,NE,36,6.0,9.0,78,0.00,,,0.00,Wunderground v.1.15,2014-03-03 11:32:00,
2014-03-03 06:34:00,13.6,7.7,30.34,NNE,22,5.0,9.0,77,0.00,,,0.00,Wunderground v.1.15,2014-03-03 11:34:00,
2014-03-03 06:35:00,13.5,7.6,30.34,North,360,4.0,12.0,77,0.00,,,0.00,Wunderground v.1.15,2014-03-03 11:35:00,
2014-03-03 06:36:00,13.5,7.6,30.34,NNE,17,6.0,12.0,77,0.00,,,0.00,Wunderground v.1.15,2014-03-03 11:36:00,
2014-03-03 06:37:00,13.5,7.6,30.34,NNE,29,8.0,12.0,77,0.00,,,0.00,Wunderground v.1.15,2014-03-03 11:37:00,
2014-03-03 06:39:00,13.5,7.6,30.35,North,9,5.0,12.0,77,0.00,,,0.00,Wunderground v.1.15,2014-03-03 11:39:00,
2014-03-03 06:41:00,13.5,7.6,30.34,NNE,22,7.0,7.0,77,0.00,,,0.00,Wunderground v.1.15,2014-03-03 11:41:00,
2014-03-03 06:42:00,13.5,7.6,30.35,North,355,9.0,9.0,77,0.00,,,0.00,Wunderground v.1.15,2014-03-03 11:42:00,
2014-03-03 06:44:00,13.4,7.5,30.35,NNE,17,7.0,12.0,77,0.00,,,0.00,Wunderground v.1.15,2014-03-03 11:44:00,
2014-03-03 06:46:00,13.4,7.5,30.35,North,360,6.0,12.0,77,0.00,,,0.00,Wunderground v.1.15,2014-03-03 11:46:00,
2014-03-03 06:47:00,13.4,7.5,30.35,North,355,3.0,12.0,77,0.00,,,0.00,Wunderground v.1.15,2014-03-03 11:47:00,
2014-03-03 06:48:00,13.4,7.5,30.35,NNE,15,6.0,12.0,77,0.00,,,0.00,Wunderground v.1.15,2014-03-03 11:48:00,
2014-03-03 06:49:00,13.4,7.5,30.35,NE,42,6.0,12.0,77,0.00,,,0.00,Wunderground v.1.15,2014-03-03 11:49:00,
2014-03-03 06:50:00,13.4,7.5,30.35,North,10,8.0,8.0,77,0.00,,,0.00,Wunderground v.1.15,2014-03-03 11:50:00,
2014-03-03 06:51:00,13.4,7.5,30.35,NNE,30,4.0,8.0,77,0.00,,,0.00,Wunderground v.1.15,2014-03-03 11:51:00,
2014-03-03 06:53:00,13.4,7.5,30.35,NNE,17,4.0,8.0,77,0.00,,,0.00,Wunderground v.1.15,2014-03-03 11:53:00,
2014-03-03 06:54:00,13.4,7.8,30.34,NNE,23,7.0,8.0,78,0.00,,,0.00,Wunderground v.1.15,2014-03-03 11:54:00,
2014-03-03 06:55:00,13.4,7.8,30.34,NNE,21,4.0,8.0,78,0.00,,,0.00,Wunderground v.1.15,2014-03-03 11:55:00,
2014-03-03 06:56:00,13.4,7.8,30.34,NE,48,8.0,9.0,78,0.00,,,0.00,Wunderground v.1.15,2014-03-03 11:56:00,
2014-03-03 06:58:00,13.3,7.7,30.34,NNW,348,4.0,9.0,78,0.00,,,0.00,Wunderground v.1.15,2014-03-03 11:58:00,
2014-03-03 07:00:00,13.4,7.8,30.35,NNE,28,9.0,9.0,78,0.00,,,0.00,Wunderground v.1.15,2014-03-03 12:00:00,
2014-03-03 07:02:00,13.4,7.8,30.35,NNE,12,9.0,9.0,78,0.00,,,0.00,Wunderground v.1.15,2014-03-03 12:02:00,
2014-03-03 07:03:00,13.4,7.8,30.35,NNE,15,4.0,9.0,78,0.00,,,0.00,Wunderground v.1.15,2014-03-03 12:03:00,
2014-03-03 07:04:00,13.4,7.8,30.35,NNE,19,5.0,9.0,78,0.00,,,0.00,Wunderground v.1.15,2014-03-03 12:04:00,
2014-03-03 07:05:00,13.4,7.8,30.35,NNE,16,4.0,9.0,78,0.00,,,0.00,Wunderground v.1.15,2014-03-03 12:05:00,
2014-03-03 07:06:00,13.3,7.7,30.35,NNE,23,5.0,9.0,78,0.00,,,0.00,Wunderground v.1.15,2014-03-03 12:06:00,
2014-03-03 07:07:00,13.3,7.7,30.35,NNE,25,9.0,13.0,78,0.00,,,0.00,Wunderground v.1.15,2014-03-03 12:07:00,
2014-03-03 07:08:00,13.3,7.7,30.34,North,355,6.0,13.0,78,0.00,,,0.00,Wunderground v.1.15,2014-03-03 12:08:00,
2014-03-03 07:09:00,13.3,7.7,30.34,NNE,24,5.0,13.0,78,0.00,,,0.00,Wunderground v.1.15,2014-03-03 12:09:00,
2014-03-03 07:10:00,13.3,7.7,30.34,NE,37,11.0,11.0,78,0.00,,,0.00,Wunderground v.1.15,2014-03-03 12:10:00,
2014-03-03 07:11:00,13.2,7.6,30.35,NE,41,5.0,11.0,78,0.00,,,0.00,Wunderground v.1.15,2014-03-03 12:11:00,
2014-03-03 07:12:00,13.2,7.6,30.35,NNE,22,5.0,11.0,78,0.00,,,0.00,Wunderground v.1.15,2014-03-03 12:12:00,
2014-03-03 07:13:00,13.3,7.7,30.34,NE,35,5.0,11.0,78,0.00,,,0.00,Wunderground v.1.15,2014-03-03 12:13:00,
2014-03-03 07:14:00,13.2,7.6,30.34,NNE,14,8.0,11.0,78,0.00,,,0.00,Wunderground v.1.15,2014-03-03 12:14:00,
2014-03-03 07:15:00,13.2,7.6,30.34,NNE,14,4.0,11.0,78,0.00,,,0.00,Wunderground v.1.15,2014-03-03 12:15:00,
2014-03-03 07:16:00,13.2,7.6,30.34,North,11,6.0,11.0,78,0.00,,,0.00,Wunderground v.1.15,2014-03-03 12:16:00,
2014-03-03 07:18:00,13.2,7.6,30.35,NNE,22,4.0,12.0,78,0.00,,,0.00,Wunderground v.1.15,2014-03-03 12:18:00,
2014-03-03 07:19:00,13.2,7.6,30.35,North,5,2.0,12.0,78,0.00,,,0.00,Wunderground v.1.15,2014-03-03 12:19:00,
2014-03-03 07:20:00,13.2,7.6,30.35,NE,38,7.0,11.0,78,0.00,,,0.00,Wunderground v.1.15,2014-03-03 12:20:00,
2014-03-03 07:21:00,13.2,7.6,30.35,NE,49,5.0,11.0,78,0.00,,,0.00,Wunderground v.1.15,2014-03-03 12:21:00,
2014-03-03 07:23:00,13.2,7.6,30.36,NNE,27,6.0,11.0,78,0.00,,,0.00,Wunderground v.1.15,2014-03-03 12:23:00,
2014-03-03 07:24:00,13.2,7.9,30.36,NNW,327,3.0,11.0,79,0.00,,,0.00,Wunderground v.1.15,2014-03-03 12:24:00,
2014-03-03 07:25:00,13.2,7.9,30.37,NNW,329,2.0,11.0,79,0.00,,,0.00,Wunderground v.1.15,2014-03-03 12:25:00,
2014-03-03 07:26:00,13.2,7.9,30.37,NNW,331,3.0,11.0,79,0.00,,,0.00,Wunderground v.1.15,2014-03-03 12:26:00,
2014-03-03 07:27:00,13.2,7.9,30.37,NNW,331,3.0,11.0,79,0.00,,,0.00,Wunderground v.1.15,2014-03-03 12:27:00,
2014-03-03 07:28:00,13.2,7.9,30.36,North,5,5.0,11.0,79,0.00,,,0.00,Wunderground v.1.15,2014-03-03 12:28:00,
2014-03-03 07:29:00,13.2,7.9,30.36,North,351,5.0,11.0,79,0.00,,,0.00,Wunderground v.1.15,2014-03-03 12:29:00,
2014-03-03 07:30:00,13.2,7.9,30.36,NNE,32,6.0,7.0,79,0.00,,,0.00,Wunderground v.1.15,2014-03-03 12:30:00,
2014-03-03 07:31:00,13.2,7.9,30.36,North,355,5.0,10.0,79,0.00,,,0.00,Wunderground v.1.15,2014-03-03 12:31:00,
2014-03-03 07:32:00,13.2,7.9,30.36,North,5,5.0,10.0,79,0.00,,,0.00,Wunderground v.1.15,2014-03-03 12:32:00,
2014-03-03 07:33:00,13.2,7.9,30.37,North,355,4.0,10.0,79,0.00,,,0.00,Wunderground v.1.15,2014-03-03 12:33:00,
2014-03-03 07:34:00,13.2,7.9,30.37,NNW,333,4.0,10.0,79,0.00,,,0.00,Wunderground v.1.15,2014-03-03 12:34:00,
2014-03-03 07:35:00,13.2,7.9,30.37,NNW,342,5.0,10.0,79,0.00,,,0.00,Wunderground v.1.15,2014-03-03 12:35:00,
2014-03-03 07:36:00,13.2,7.9,30.37,NNW,345,9.0,10.0,79,0.00,,,0.00,Wunderground v.1.15,2014-03-03 12:36:00,
2014-03-03 07:37:00,13.2,7.9,30.37,North,350,5.0,10.0,79,0.00,,,0.00,Wunderground v.1.15,2014-03-03 12:37:00,
2014-03-03 07:39:00,13.2,7.9,30.37,NNE,13,3.0,10.0,79,0.00,,,0.00,Wunderground v.1.15,2014-03-03 12:39:00,
2014-03-03 07:40:00,13.2,7.9,30.37,NNE,13,4.0,5.0,79,0.00,,,0.00,Wunderground v.1.15,2014-03-03 12:40:00,
2014-03-03 07:42:00,13.1,7.8,30.37,NNE,28,9.0,12.0,79,0.00,,,0.00,Wunderground v.1.15,2014-03-03 12:42:00,
2014-03-03 07:45:00,13.1,7.8,30.37,NNE,14,9.0,12.0,79,0.00,,,0.00,Wunderground v.1.15,2014-03-03 12:45:00,
2014-03-03 07:46:00,13.1,7.8,30.37,NE,34,12.0,15.0,79,0.00,,,0.00,Wunderground v.1.15,2014-03-03 12:46:00,
2014-03-03 07:47:00,13.1,7.8,30.37,North,5,1.0,15.0,79,0.00,,,0.00,Wunderground v.1.15,2014-03-03 12:47:00,
2014-03-03 07:48:00,13.1,7.8,30.37,North,5,2.0,15.0,79,0.00,,,0.00,Wunderground v.1.15,2014-03-03 12:48:00,
2014-03-03 07:50:00,13.1,7.8,30.37,NE,47,12.0,12.0,79,0.00,,,0.00,Wunderground v.1.15,2014-03-03 12:50:00,
2014-03-03 07:51:00,13.1,7.8,30.37,NE,45,5.0,12.0,79,0.00,,,0.00,Wunderground v.1.15,2014-03-03 12:51:00,
2014-03-03 07:53:00,13.1,7.8,30.37,NNE,17,8.0,12.0,79,0.00,,,0.00,Wunderground v.1.15,2014-03-03 12:53:00,
2014-03-03 07:55:00,13.1,7.8,30.37,NNE,13,3.0,12.0,79,0.00,,,0.00,Wunderground v.1.15,2014-03-03 12:55:00,
2014-03-03 07:56:00,13.1,7.8,30.37,North,5,5.0,12.0,79,0.00,,,0.00,Wunderground v.1.15,2014-03-03 12:56:00,
2014-03-03 07:58:00,13.1,7.8,30.37,North,355,7.0,12.0,79,0.00,,,0.00,Wunderground v.1.15,2014-03-03 12:58:00,
2014-03-03 07:59:00,13.1,7.8,30.37,NNE,13,5.0,12.0,79,0.00,,,0.00,Wunderground v.1.15,2014-03-03 12:59:00,
2014-03-03 08:00:00,13.1,7.8,30.37,NNW,339,8.0,11.0,79,0.00,,,0.00,Wunderground v.1.15,2014-03-03 13:00:00,
2014-03-03 08:01:00,13.1,7.8,30.37,North,9,6.0,13.0,79,0.00,,,0.00,Wunderground v.1.15,2014-03-03 13:01:00,
2014-03-03 08:02:00,13.1,7.8,30.37,NNW,339,1.0,13.0,79,0.00,,,0.00,Wunderground v.1.15,2014-03-03 13:02:00,
2014-03-03 08:03:00,13.1,7.8,30.37,NE,34,4.0,13.0,79,0.00,,,0.00,Wunderground v.1.15,2014-03-03 13:03:00,
2014-03-03 08:04:00,13.1,7.8,30.37,North,9,4.0,13.0,79,0.00,,,0.00,Wunderground v.1.15,2014-03-03 13:04:00,
2014-03-03 08:05:00,13.1,7.8,30.37,North,5,2.0,13.0,79,0.00,,,0.00,Wunderground v.1.15,2014-03-03 13:05:00,
2014-03-03 08:06:00,13.1,8.1,30.37,NNE,23,2.0,13.0,80,0.00,,,0.00,Wunderground v.1.15,2014-03-03 13:06:00,
2014-03-03 08:07:00,13.1,8.1,30.37,NE,38,5.0,13.0,80,0.00,,,0.00,Wunderground v.1.15,2014-03-03 13:07:00,
2014-03-03 08:09:00,13.1,8.1,30.37,NNW,336,8.0,13.0,80,0.00,,,0.00,Wunderground v.1.15,2014-03-03 13:09:00,
2014-03-03 08:10:00,13.2,8.2,30.38,NE,43,6.0,6.0,80,0.00,,,0.00,Wunderground v.1.15,2014-03-03 13:10:00,
2014-03-03 08:11:00,13.2,8.2,30.38,NE,45,7.0,8.0,80,0.00,,,0.00,Wunderground v.1.15,2014-03-03 13:11:00,
2014-03-03 08:12:00,13.2,7.9,30.38,NE,45,10.0,11.0,79,0.00,,,0.00,Wunderground v.1.15,2014-03-03 13:12:00,
2014-03-03 08:15:00,13.1,7.8,30.38,NNE,32,5.0,11.0,79,0.00,,,0.00,Wunderground v.1.15,2014-03-03 13:15:00,
2014-03-03 08:16:00,13.1,7.8,30.38,North,9,4.0,11.0,79,0.00,,,0.00,Wunderground v.1.15,2014-03-03 13:16:00,
2014-03-03 08:17:00,13.2,7.9,30.38,NE,49,3.0,11.0,79,0.00,,,0.00,Wunderground v.1.15,2014-03-03 13:17:00,
2014-03-03 08:18:00,13.1,7.8,30.38,NNE,33,4.0,11.0,79,0.00,,,0.00,Wunderground v.1.15,2014-03-03 13:18:00,
2014-03-03 08:21:00,13.2,7.9,30.38,North,11,4.0,6.0,79,0.00,,,0.00,Wunderground v.1.15,2014-03-03 13:21:00,
2014-03-03 08:22:00,13.2,7.9,30.39,North,11,3.0,6.0,79,0.00,,,0.00,Wunderground v.1.15,2014-03-03 13:22:00,
2014-03-03 08:23:00,13.2,8.2,30.39,North,360,5.0,6.0,80,0.00,,,0.00,Wunderground v.1.15,2014-03-03 13:23:00,
2014-03-03 08:24:00,13.2,8.2,30.39,NNE,14,3.0,8.0,80,0.00,,,0.00,Wunderground v.1.15,2014-03-03 13:24:00,
2014-03-03 08:26:00,13.2,8.2,30.39,NNE,14,3.0,8.0,80,0.00,,,0.00,Wunderground v.1.15,2014-03-03 13:26:00,
2014-03-03 08:27:00,13.2,8.2,30.39,NNE,30,7.0,10.0,80,0.00,,,0.00,Wunderground v.1.15,2014-03-03 13:27:00,
2014-03-03 08:28:00,13.2,7.9,30.39,NE,38,6.0,12.0,79,0.00,,,0.00,Wunderground v.1.15,2014-03-03 13:28:00,
2014-03-03 08:30:00,13.1,7.8,30.40,NNE,15,10.0,11.0,79,0.00,,,0.00,Wunderground v.1.15,2014-03-03 13:30:00,
2014-03-03 08:31:00,13.1,7.8,30.40,NNE,17,6.0,11.0,79,0.00,,,0.00,Wunderground v.1.15,2014-03-03 13:31:00,
2014-03-03 08:32:00,13.1,7.8,30.40,North,5,4.0,11.0,79,0.00,,,0.00,Wunderground v.1.15,2014-03-03 13:32:00,
2014-03-03 08:33:00,13.1,7.8,30.39,NW,313,8.0,11.0,79,0.00,,,0.00,Wunderground v.1.15,2014-03-03 13:33:00,
2014-03-03 08:34:00,13.1,7.8,30.39,NNE,24,4.0,11.0,79,0.00,,,0.00,Wunderground v.1.15,2014-03-03 13:34:00,
2014-03-03 08:35:00,13.1,7.8,30.39,NNE,17,3.0,11.0,79,0.00,,,0.00,Wunderground v.1.15,2014-03-03 13:35:00,
2014-03-03 08:36:00,13.1,7.8,30.39,NNE,24,6.0,11.0,79,0.00,,,0.00,Wunderground v.1.15,2014-03-03 13:36:00,
2014-03-03 08:38:00,13.2,7.9,30.39,NNE,32,6.0,12.0,79,0.00,,,0.00,Wunderground v.1.15,2014-03-03 13:38:00,
2014-03-03 08:39:00,13.3,8.0,30.39,North,360,5.0,12.0,79,0.00,,,0.00,Wunderground v.1.15,2014-03-03 13:39:00,
2014-03-03 08:40:00,13.4,8.1,30.40,NNE,26,6.0,6.0,79,0.00,,,0.00,Wunderground v.1.15,2014-03-03 13:40:00,
2014-03-03 08:42:00,13.5,8.2,30.40,NE,47,8.0,8.0,79,0.00,,,0.00,Wunderground v.1.15,2014-03-03 13:42:00,
2014-03-03 08:43:00,13.5,8.2,30.39,North,9,8.0,9.0,79,0.00,,,0.00,Wunderground v.1.15,2014-03-03 13:43:00,
2014-03-03 08:44:00,13.6,8.3,30.39,NNE,22,7.0,9.0,79,0.00,,,0.00,Wunderground v.1.15,2014-03-03 13:44:00,
2014-03-03 08:45:00,13.7,8.4,30.40,NNW,340,7.0,9.0,79,0.00,,,0.00,Wunderground v.1.15,2014-03-03 13:45:00,
2014-03-03 08:47:00,13.8,8.5,30.40,NNE,31,6.0,11.0,79,0.00,,,0.00,Wunderground v.1.15,2014-03-03 13:47:00,
2014-03-03 08:48:00,13.9,8.6,30.40,NNE,14,6.0,11.0,79,0.00,,,0.00,Wunderground v.1.15,2014-03-03 13:48:00,
2014-03-03 08:49:00,13.9,8.6,30.40,NNE,26,3.0,12.0,79,0.00,,,0.00,Wunderground v.1.15,2014-03-03 13:49:00,
2014-03-03 08:50:00,14.0,8.7,30.40,NNE,18,6.0,6.0,79,0.00,,,0.00,Wunderground v.1.15,2014-03-03 13:50:00,
2014-03-03 08:51:00,14.1,8.8,30.40,North,5,9.0,9.0,79,0.00,,,0.00,Wunderground v.1.15,2014-03-03 13:51:00,
2014-03-03 08:52:00,14.1,8.8,30.40,NNE,30,11.0,13.0,79,0.00,,,0.00,Wunderground v.1.15,2014-03-03 13:52:00,
2014-03-03 08:53:00,14.1,8.5,30.40,North,5,10.0,13.0,78,0.00,,,0.00,Wunderground v.1.15,2014-03-03 13:53:00,
2014-03-03 08:54:00,14.1,8.5,30.40,NNE,24,9.0,13.0,78,0.00,,,0.00,Wunderground v.1.15,2014-03-03 13:54:00,
2014-03-03 08:55:00,14.1,8.5,30.40,NNE,15,3.0,13.0,78,0.00,,,0.00,Wunderground v.1.15,2014-03-03 13:55:00,
2014-03-03 08:56:00,14.0,8.4,30.40,NNE,23,3.0,13.0,78,0.00,,,0.00,Wunderground v.1.15,2014-03-03 13:56:00,
2014-03-03 08:57:00,14.1,8.5,30.40,North,351,2.0,13.0,78,0.00,,,0.00,Wunderground v.1.15,2014-03-03 13:57:00,
2014-03-03 08:59:00,14.2,8.6,30.40,North,5,5.0,13.0,78,0.00,,,0.00,Wunderground v.1.15,2014-03-03 13:59:00,
2014-03-03 09:00:00,14.2,8.6,30.40,NNE,20,13.0,13.0,78,0.00,,,0.00,Wunderground v.1.15,2014-03-03 14:00:00,
2014-03-03 09:01:00,14.1,8.5,30.40,NE,34,8.0,16.0,78,0.00,,,0.00,Wunderground v.1.15,2014-03-03 14:01:00,
2014-03-03 09:02:00,14.0,8.1,30.40,NE,40,9.0,16.0,77,0.00,,,0.00,Wunderground v.1.15,2014-03-03 14:02:00,
2014-03-03 09:03:00,14.0,8.1,30.40,NNE,28,12.0,16.0,77,0.00,,,0.00,Wunderground v.1.15,2014-03-03 14:03:00,
2014-03-03 09:04:00,14.0,8.1,30.39,NE,34,9.0,16.0,77,0.00,,,0.00,Wunderground v.1.15,2014-03-03 14:04:00,
2014-03-03 09:06:00,14.0,8.4,30.40,NNE,24,11.0,16.0,78,0.00,,,0.00,Wunderground v.1.15,2014-03-03 14:06:00,
2014-03-03 09:08:00,13.9,8.0,30.40,NNE,20,4.0,16.0,77,0.00,,,0.00,Wunderground v.1.15,2014-03-03 14:08:00,
2014-03-03 09:09:00,13.9,8.3,30.40,NE,38,7.0,16.0,78,0.00,,,0.00,Wunderground v.1.15,2014-03-03 14:09:00,
2014-03-03 09:11:00,14.0,8.4,30.40,NE,39,7.0,8.0,78,0.00,,,0.00,Wunderground v.1.15,2014-03-03 14:11:00,
2014-03-03 09:12:00,14.0,8.4,30.40,NNE,12,7.0,13.0,78,0.00,,,0.00,Wunderground v.1.15,2014-03-03 14:12:00,
2014-03-03 09:14:00,14.1,8.5,30.40,NNW,337,3.0,13.0,78,0.00,,,0.00,Wunderground v.1.15,2014-03-03 14:14:00,
2014-03-03 09:16:00,14.1,8.5,30.41,NE,47,7.0,13.0,78,0.00,,,0.00,Wunderground v.1.15,2014-03-03 14:16:00,
2014-03-03 09:17:00,14.1,8.5,30.41,North,5,8.0,13.0,78,0.00,,,0.00,Wunderground v.1.15,2014-03-03 14:17:00,
2014-03-03 09:18:00,14.1,8.5,30.41,NNE,20,10.0,13.0,78,0.00,,,0.00,Wunderground v.1.15,2014-03-03 14:18:00,
2014-03-03 09:19:00,14.1,8.2,30.41,NNE,12,12.0,13.0,77,0.00,,,0.00,Wunderground v.1.15,2014-03-03 14:19:00,
2014-03-03 09:20:00,14.1,8.2,30.41,ESE,111,4.0,11.0,77,0.00,,,0.00,Wunderground v.1.15,2014-03-03 14:20:00,
2014-03-03 09:22:00,14.1,8.2,30.41,NNE,14,7.0,11.0,77,0.00,,,0.00,Wunderground v.1.15,2014-03-03 14:22:00,
2014-03-03 09:23:00,14.1,8.5,30.41,NNE,18,6.0,11.0,78,0.00,,,0.00,Wunderground v.1.15,2014-03-03 14:23:00,
2014-03-03 09:24:00,14.2,8.6,30.41,NNE,22,4.0,11.0,78,0.00,,,0.00,Wunderground v.1.15,2014-03-03 14:24:00,
2014-03-03 09:25:00,14.3,8.7,30.42,NNW,338,6.0,11.0,78,0.00,,,0.00,Wunderground v.1.15,2014-03-03 14:25:00,
2014-03-03 09:27:00,14.4,8.8,30.41,NNW,334,3.0,11.0,78,0.00,,,0.00,Wunderground v.1.15,2014-03-03 14:27:00,
2014-03-03 09:28:00,14.4,8.8,30.41,NW,325,5.0,11.0,78,0.00,,,0.00,Wunderground v.1.15,2014-03-03 14:28:00,
2014-03-03 09:29:00,14.5,8.9,30.41,North,355,3.0,11.0,78,0.00,,,0.00,Wunderground v.1.15,2014-03-03 14:29:00,
2014-03-03 09:30:00,14.6,9.0,30.41,North,355,6.0,6.0,78,0.00,,,0.00,Wunderground v.1.15,2014-03-03 14:30:00,
2014-03-03 09:33:00,14.8,9.2,30.42,North,360,7.0,11.0,78,0.00,,,0.00,Wunderground v.1.15,2014-03-03 14:33:00,
2014-03-03 09:34:00,14.8,8.9,30.41,North,360,4.0,11.0,77,0.00,,,0.00,Wunderground v.1.15,2014-03-03 14:34:00,
2014-03-03 09:35:00,14.8,8.9,30.42,NNE,28,10.0,11.0,77,0.00,,,0.00,Wunderground v.1.15,2014-03-03 14:35:00,
2014-03-03 09:38:00,14.7,8.5,30.42,NNE,33,8.0,13.0,76,0.00,,,0.00,Wunderground v.1.15,2014-03-03 14:38:00,
2014-03-03 09:39:00,14.6,8.4,30.42,North,360,4.0,13.0,76,0.00,,,0.00,Wunderground v.1.15,2014-03-03 14:39:00,
2014-03-03 09:40:00,14.6,8.4,30.42,NW,311,4.0,7.0,76,0.00,,,0.00,Wunderground v.1.15,2014-03-03 14:40:00,
2014-03-03 09:41:00,14.7,8.5,30.42,NW,325,3.0,7.0,76,0.00,,,0.00,Wunderground v.1.15,2014-03-03 14:41:00,
2014-03-03 09:43:00,14.9,9.0,30.42,North,5,5.0,9.0,77,0.00,,,0.00,Wunderground v.1.15,2014-03-03 14:43:00,
2014-03-03 09:44:00,14.8,8.9,30.42,NNE,20,7.0,9.0,77,0.00,,,0.00,Wunderground v.1.15,2014-03-03 14:44:00,
2014-03-03 09:45:00,14.8,8.6,30.42,NNE,13,11.0,11.0,76,0.00,,,0.00,Wunderground v.1.15,2014-03-03 14:45:00,
2014-03-03 09:46:00,14.7,8.5,30.42,NNW,339,6.0,12.0,76,0.00,,,0.00,Wunderground v.1.15,2014-03-03 14:46:00,
2014-03-03 09:48:00,14.6,8.4,30.42,NNE,22,6.0,12.0,76,0.00,,,0.00,Wunderground v.1.15,2014-03-03 14:48:00,
2014-03-03 09:49:00,14.5,8.3,30.42,NNE,28,10.0,12.0,76,0.00,,,0.00,Wunderground v.1.15,2014-03-03 14:49:00,
2014-03-03 09:50:00,14.5,8.0,30.42,NNW,330,5.0,6.0,75,0.00,,,0.00,Wunderground v.1.15,2014-03-03 14:50:00,
2014-03-03 09:51:00,14.6,8.1,30.42,NNE,24,8.0,8.0,75,0.00,,,0.00,Wunderground v.1.15,2014-03-03 14:51:00,
2014-03-03 09:54:00,14.9,8.7,30.42,NE,50,7.0,11.0,76,0.00,,,0.00,Wunderground v.1.15,2014-03-03 14:54:00,
2014-03-03 09:55:00,15.1,8.9,30.42,NNW,330,5.0,11.0,76,0.00,,,0.00,Wunderground v.1.15,2014-03-03 14:55:00,
2014-03-03 09:56:00,15.3,9.4,30.42,North,349,7.0,11.0,77,0.00,,,0.00,Wunderground v.1.15,2014-03-03 14:56:00,
2014-03-03 09:57:00,15.3,9.4,30.42,NNE,19,5.0,11.0,77,0.00,,,0.00,Wunderground v.1.15,2014-03-03 14:57:00,
2014-03-03 09:59:00,15.6,9.7,30.42,NW,323,5.0,11.0,77,0.00,,,0.00,Wunderground v.1.15,2014-03-03 14:59:00,
2014-03-03 10:00:00,15.7,9.8,30.42,NE,40,9.0,9.0,77,0.00,,,0.00,Wunderground v.1.15,2014-03-03 15:00:00,
2014-03-03 10:02:00,15.8,9.6,30.42,NE,38,11.0,12.0,76,0.00,,,0.00,Wunderground v.1.15,2014-03-03 15:02:00,
2014-03-03 10:03:00,15.8,9.6,30.42,NE,38,9.0,12.0,76,0.00,,,0.00,Wunderground v.1.15,2014-03-03 15:03:00,
2014-03-03 10:04:00,15.7,9.5,30.43,North,360,4.0,12.0,76,0.00,,,0.00,Wunderground v.1.15,2014-03-03 15:04:00,
2014-03-03 10:05:00,15.8,9.6,30.43,North,360,7.0,12.0,76,0.00,,,0.00,Wunderground v.1.15,2014-03-03 15:05:00,
2014-03-03 10:07:00,15.7,9.5,30.43,North,360,7.0,12.0,76,0.00,,,0.00,Wunderground v.1.15,2014-03-03 15:07:00,
2014-03-03 10:08:00,15.6,9.4,30.43,NE,43,5.0,12.0,76,0.00,,,0.00,Wunderground v.1.15,2014-03-03 15:08:00,
2014-03-03 10:09:00,15.6,9.4,30.43,NNE,23,4.0,12.0,76,0.00,,,0.00,Wunderground v.1.15,2014-03-03 15:09:00,
2014-03-03 10:10:00,15.5,9.3,30.43,NNE,16,5.0,9.0,76,0.00,,,0.00,Wunderground v.1.15,2014-03-03 15:10:00,
2014-03-03 10:11:00,15.4,8.9,30.43,NNW,331,2.0,9.0,75,0.00,,,0.00,Wunderground v.1.15,2014-03-03 15:11:00,
2014-03-03 10:12:00,15.4,9.2,30.42,North,5,8.0,10.0,76,0.00,,,0.00,Wunderground v.1.15,2014-03-03 15:12:00,
2014-03-03 10:14:00,15.5,9.3,30.42,North,355,10.0,10.0,76,0.00,,,0.00,Wunderground v.1.15,2014-03-03 15:14:00,
2014-03-03 10:15:00,15.5,9.3,30.42,NNW,327,2.0,10.0,76,0.00,,,0.00,Wunderground v.1.15,2014-03-03 15:15:00,
2014-03-03 10:16:00,15.6,9.4,30.42,North,355,5.0,10.0,76,0.00,,,0.00,Wunderground v.1.15,2014-03-03 15:16:00,
2014-03-03 10:17:00,15.6,9.4,30.42,NNW,335,7.0,10.0,76,0.00,,,0.00,Wunderground v.1.15,2014-03-03 15:17:00,
2014-03-03 10:18:00,15.7,9.5,30.42,NNW,347,4.0,10.0,76,0.00,,,0.00,Wunderground v.1.15,2014-03-03 15:18:00,
2014-03-03 10:19:00,15.7,9.5,30.42,NE,36,8.0,10.0,76,0.00,,,0.00,Wunderground v.1.15,2014-03-03 15:19:00,
2014-03-03 10:21:00,15.5,9.0,30.42,NW,309,6.0,12.0,75,0.00,,,0.00,Wunderground v.1.15,2014-03-03 15:21:00,
2014-03-03 10:22:00,15.5,9.0,30.42,NNW,333,3.0,12.0,75,0.00,,,0.00,Wunderground v.1.15,2014-03-03 15:22:00,
2014-03-03 10:23:00,15.5,9.0,30.42,NNE,23,4.0,12.0,75,0.00,,,0.00,Wunderground v.1.15,2014-03-03 15:23:00,
2014-03-03 10:24:00,15.6,9.1,30.43,North,5,5.0,12.0,75,0.00,,,0.00,Wunderground v.1.15,2014-03-03 15:24:00,
2014-03-03 10:26:00,15.8,9.6,30.43,North,360,6.0,12.0,76,0.00,,,0.00,Wunderground v.1.15,2014-03-03 15:26:00,
2014-03-03 10:27:00,15.8,9.6,30.43,NNE,16,7.0,12.0,76,0.00,,,0.00,Wunderground v.1.15,2014-03-03 15:27:00,
2014-03-03 10:28:00,15.8,9.6,30.43,North,11,9.0,12.0,76,0.00,,,0.00,Wunderground v.1.15,2014-03-03 15:28:00,
2014-03-03 10:29:00,15.6,9.1,30.43,NNW,342,7.0,12.0,75,0.00,,,0.00,Wunderground v.1.15,2014-03-03 15:29:00,
2014-03-03 10:31:00,15.5,8.7,30.43,NNW,328,4.0,8.0,74,0.00,,,0.00,Wunderground v.1.15,2014-03-03 15:31:00,
2014-03-03 10:32:00,15.6,9.1,30.43,NNW,334,5.0,8.0,75,0.00,,,0.00,Wunderground v.1.15,2014-03-03 15:32:00,
2014-03-03 10:33:00,15.6,9.1,30.43,North,349,9.0,10.0,75,0.00,,,0.00,Wunderground v.1.15,2014-03-03 15:33:00,
2014-03-03 10:34:00,15.5,8.7,30.43,NNW,347,5.0,10.0,74,0.00,,,0.00,Wunderground v.1.15,2014-03-03 15:34:00,
2014-03-03 10:37:00,15.5,9.0,30.43,North,5,5.0,10.0,75,0.00,,,0.00,Wunderground v.1.15,2014-03-03 15:37:00,
2014-03-03 10:38:00,15.6,9.1,30.43,NNW,335,5.0,11.0,75,0.00,,,0.00,Wunderground v.1.15,2014-03-03 15:38:00,
2014-03-03 10:40:00,15.6,9.1,30.43,NNW,338,8.0,8.0,75,0.00,,,0.00,Wunderground v.1.15,2014-03-03 15:40:00,
2014-03-03 10:42:00,15.4,8.6,30.43,NNE,19,7.0,11.0,74,0.00,,,0.00,Wunderground v.1.15,2014-03-03 15:42:00,
2014-03-03 10:43:00,15.4,8.6,30.43,North,360,5.0,11.0,74,0.00,,,0.00,Wunderground v.1.15,2014-03-03 15:43:00,
2014-03-03 10:44:00,15.4,8.6,30.43,NNW,345,8.0,11.0,74,0.00,,,0.00,Wunderground v.1.15,2014-03-03 15:44:00,
2014-03-03 10:45:00,15.4,8.6,30.43,North,355,7.0,11.0,74,0.00,,,0.00,Wunderground v.1.15,2014-03-03 15:45:00,
2014-03-03 10:47:00,15.5,9.0,30.43,NNW,348,11.0,11.0,75,0.00,,,0.00,Wunderground v.1.15,2014-03-03 15:47:00,
2014-03-03 10:48:00,15.5,9.0,30.43,NE,37,9.0,11.0,75,0.00,,,0.00,Wunderground v.1.15,2014-03-03 15:48:00,
2014-03-03 10:49:00,15.4,8.9,30.43,NW,326,8.0,11.0,75,0.00,,,0.00,Wunderground v.1.15,2014-03-03 15:49:00,
2014-03-03 10:50:00,15.3,8.5,30.43,NNE,15,8.0,10.0,74,0.00,,,0.00,Wunderground v.1.15,2014-03-03 15:50:00,
2014-03-03 10:51:00,15.3,8.5,30.43,NNE,25,4.0,10.0,74,0.00,,,0.00,Wunderground v.1.15,2014-03-03 15:51:00,
2014-03-03 10:52:00,15.3,8.5,30.43,NE,41,6.0,10.0,74,0.00,,,0.00,Wunderground v.1.15,2014-03-03 15:52:00,
2014-03-03 10:53:00,15.3,8.5,30.43,North,9,5.0,10.0,74,0.00,,,0.00,Wunderground v.1.15,2014-03-03 15:53:00,
2014-03-03 10:54:00,15.3,8.5,30.43,North,360,5.0,10.0,74,0.00,,,0.00,Wunderground v.1.15,2014-03-03 15:54:00,
2014-03-03 10:55:00,15.4,8.6,30.43,North,355,2.0,10.0,74,0.00,,,0.00,Wunderground v.1.15,2014-03-03 15:55:00,
2014-03-03 10:56:00,15.4,8.9,30.43,NNW,346,5.0,10.0,75,0.00,,,0.00,Wunderground v.1.15,2014-03-03 15:56:00,
2014-03-03 10:58:00,15.5,9.0,30.43,NNE,21,11.0,11.0,75,0.00,,,0.00,Wunderground v.1.15,2014-03-03 15:58:00,
2014-03-03 10:59:00,15.5,8.7,30.43,NNE,17,8.0,13.0,74,0.00,,,0.00,Wunderground v.1.15,2014-03-03 15:59:00,
2014-03-03 11:00:00,15.6,8.8,30.43,NNW,345,6.0,6.0,74,0.00,,,0.00,Wunderground v.1.15,2014-03-03 16:00:00,
2014-03-03 11:01:00,15.7,8.9,30.43,NW,323,6.0,12.0,74,0.00,,,0.00,Wunderground v.1.15,2014-03-03 16:01:00,
2014-03-03 11:03:00,15.7,8.9,30.43,NNW,343,7.0,12.0,74,0.00,,,0.00,Wunderground v.1.15,2014-03-03 16:03:00,
2014-03-03 11:04:00,15.6,8.5,30.43,NNW,346,3.0,12.0,73,0.00,,,0.00,Wunderground v.1.15,2014-03-03 16:04:00,
2014-03-03 11:05:00,15.7,8.6,30.43,NNE,12,2.0,12.0,73,0.00,,,0.00,Wunderground v.1.15,2014-03-03 16:05:00,
2014-03-03 11:06:00,15.7,8.9,30.43,NW,326,7.0,12.0,74,0.00,,,0.00,Wunderground v.1.15,2014-03-03 16:06:00,
2014-03-03 11:07:00,15.8,9.0,30.43,North,355,9.0,12.0,74,0.00,,,0.00,Wunderground v.1.15,2014-03-03 16:07:00,
2014-03-03 11:08:00,15.7,8.9,30.43,NNE,28,7.0,12.0,74,0.00,,,0.00,Wunderground v.1.15,2014-03-03 16:08:00,
2014-03-03 11:09:00,15.7,8.6,30.43,North,350,7.0,12.0,73,0.00,,,0.00,Wunderground v.1.15,2014-03-03 16:09:00,
2014-03-03 11:10:00,15.7,8.6,30.43,NNW,342,2.0,6.0,73,0.00,,,0.00,Wunderground v.1.15,2014-03-03 16:10:00,
2014-03-03 11:12:00,15.7,8.6,30.43,North,355,7.0,9.0,73,0.00,,,0.00,Wunderground v.1.15,2014-03-03 16:12:00,
2014-03-03 11:14:00,15.7,8.6,30.43,NNW,348,7.0,9.0,73,0.00,,,0.00,Wunderground v.1.15,2014-03-03 16:14:00,
2014-03-03 11:15:00,15.7,8.6,30.43,NNE,24,5.0,9.0,73,0.00,,,0.00,Wunderground v.1.15,2014-03-03 16:15:00,
2014-03-03 11:17:00,15.9,8.8,30.43,North,351,5.0,9.0,73,0.00,,,0.00,Wunderground v.1.15,2014-03-03 16:17:00,
2014-03-03 11:18:00,16.0,9.2,30.43,NW,326,3.0,9.0,74,0.00,,,0.00,Wunderground v.1.15,2014-03-03 16:18:00,
2014-03-03 11:19:00,16.1,9.3,30.43,NW,318,6.0,9.0,74,0.00,,,0.00,Wunderground v.1.15,2014-03-03 16:19:00,
2014-03-03 11:20:00,16.1,9.3,30.44,NE,50,4.0,8.0,74,0.00,,,0.00,Wunderground v.1.15,2014-03-03 16:20:00,
2014-03-03 11:22:00,16.2,9.4,30.44,North,5,5.0,8.0,74,0.00,,,0.00,Wunderground v.1.15,2014-03-03 16:22:00,
2014-03-03 11:23:00,16.3,9.5,30.44,NNW,342,5.0,8.0,74,0.00,,,0.00,Wunderground v.1.15,2014-03-03 16:23:00,
2014-03-03 11:24:00,16.4,9.6,30.44,North,360,6.0,10.0,74,0.00,,,0.00,Wunderground v.1.15,2014-03-03 16:24:00,
2014-03-03 11:26:00,16.4,9.3,30.44,NE,42,6.0,10.0,73,0.00,,,0.00,Wunderground v.1.15,2014-03-03 16:26:00,
2014-03-03 11:27:00,16.3,9.2,30.44,NNE,14,7.0,11.0,73,0.00,,,0.00,Wunderground v.1.15,2014-03-03 16:27:00,
2014-03-03 11:28:00,16.2,8.8,30.44,NE,39,5.0,11.0,72,0.00,,,0.00,Wunderground v.1.15,2014-03-03 16:28:00,
2014-03-03 11:29:00,16.3,8.9,30.43,North,11,4.0,11.0,72,0.00,,,0.00,Wunderground v.1.15,2014-03-03 16:29:00,
2014-03-03 11:30:00,16.3,9.2,30.43,NNE,28,10.0,11.0,73,0.00,,,0.00,Wunderground v.1.15,2014-03-03 16:30:00,
2014-03-03 11:31:00,16.3,9.2,30.43,NNE,15,6.0,11.0,73,0.00,,,0.00,Wunderground v.1.15,2014-03-03 16:31:00,
2014-03-03 11:32:00,16.3,9.2,30.44,NE,50,7.0,11.0,73,0.00,,,0.00,Wunderground v.1.15,2014-03-03 16:32:00,
2014-03-03 11:33:00,16.3,9.2,30.44,North,360,4.0,11.0,73,0.00,,,0.00,Wunderground v.1.15,2014-03-03 16:33:00,
2014-03-03 11:35:00,16.6,9.8,30.44,North,355,5.0,11.0,74,0.00,,,0.00,Wunderground v.1.15,2014-03-03 16:35:00,
2014-03-03 11:37:00,16.8,9.9,30.44,NNE,24,5.0,11.0,74,0.00,,,0.00,Wunderground v.1.15,2014-03-03 16:37:00,
2014-03-03 11:38:00,16.9,10.0,30.43,NE,49,7.0,11.0,74,0.00,,,0.00,Wunderground v.1.15,2014-03-03 16:38:00,
2014-03-03 11:39:00,16.9,10.0,30.43,NNE,14,9.0,11.0,74,0.00,,,0.00,Wunderground v.1.15,2014-03-03 16:39:00,
2014-03-03 11:40:00,17.0,9.8,30.43,NNE,32,8.0,9.0,73,0.00,,,0.00,Wunderground v.1.15,2014-03-03 16:40:00,
2014-03-03 11:41:00,17.0,9.8,30.43,NE,41,8.0,11.0,73,0.00,,,0.00,Wunderground v.1.15,2014-03-03 16:41:00,
2014-03-03 11:42:00,16.8,9.3,30.44,NE,36,5.0,11.0,72,0.00,,,0.00,Wunderground v.1.15,2014-03-03 16:42:00,
2014-03-03 11:44:00,16.9,9.4,30.44,NNE,28,3.0,11.0,72,0.00,,,0.00,Wunderground v.1.15,2014-03-03 16:44:00,
2014-03-03 11:45:00,17.0,9.8,30.44,NNE,19,3.0,11.0,73,0.00,,,0.00,Wunderground v.1.15,2014-03-03 16:45:00,
2014-03-03 11:46:00,17.1,9.9,30.44,NNE,24,4.0,11.0,73,0.00,,,0.00,Wunderground v.1.15,2014-03-03 16:46:00,
2014-03-03 11:48:00,17.3,10.4,30.44,NNE,19,11.0,13.0,74,0.00,,,0.00,Wunderground v.1.15,2014-03-03 16:48:00,
2014-03-03 11:49:00,17.1,9.6,30.44,NNE,32,13.0,13.0,72,0.00,,,0.00,Wunderground v.1.15,2014-03-03 16:49:00,
2014-03-03 11:50:00,16.9,9.4,30.44,ENE,57,9.0,15.0,72,0.00,,,0.00,Wunderground v.1.15,2014-03-03 16:50:00,
2014-03-03 11:51:00,16.8,8.7,30.44,North,9,5.0,15.0,70,0.00,,,0.00,Wunderground v.1.15,2014-03-03 16:51:00,
2014-03-03 11:53:00,16.8,9.0,30.44,North,360,7.0,15.0,71,0.00,,,0.00,Wunderground v.1.15,2014-03-03 16:53:00,
2014-03-03 11:54:00,16.9,9.1,30.44,NNW,345,7.0,15.0,71,0.00,,,0.00,Wunderground v.1.15,2014-03-03 16:54:00,
2014-03-03 11:56:00,17.0,9.2,30.44,NNE,28,3.0,15.0,71,0.00,,,0.00,Wunderground v.1.15,2014-03-03 16:56:00,
2014-03-03 11:57:00,17.2,9.7,30.44,NNE,32,9.0,15.0,72,0.00,,,0.00,Wunderground v.1.15,2014-03-03 16:57:00,
2014-03-03 11:58:00,17.2,9.4,30.44,NE,46,6.0,15.0,71,0.00,,,0.00,Wunderground v.1.15,2014-03-03 16:58:00,
2014-03-03 12:00:00,17.2,9.4,30.44,NNE,24,7.0,11.0,71,0.00,,,0.00,Wunderground v.1.15,2014-03-03 17:00:00,
2014-03-03 12:01:00,17.3,9.5,30.44,NE,40,11.0,16.0,71,0.00,,,0.00,Wunderground v.1.15,2014-03-03 17:01:00,
2014-03-03 12:02:00,17.2,9.1,30.44,NE,41,7.0,16.0,70,0.00,,,0.00,Wunderground v.1.15,2014-03-03 17:02:00,
2014-03-03 12:03:00,17.2,8.8,30.44,NE,47,9.0,16.0,69,0.00,,,0.00,Wunderground v.1.15,2014-03-03 17:03:00,
2014-03-03 12:04:00,17.2,8.8,30.44,NNE,13,9.0,16.0,69,0.00,,,0.00,Wunderground v.1.15,2014-03-03 17:04:00,
2014-03-03 12:05:00,17.1,8.3,30.44,NE,38,4.0,16.0,68,0.00,,,0.00,Wunderground v.1.15,2014-03-03 17:05:00,
2014-03-03 12:07:00,17.2,8.4,30.44,NNE,16,3.0,16.0,68,0.00,,,0.00,Wunderground v.1.15,2014-03-03 17:07:00,
2014-03-03 12:08:00,17.4,8.6,30.44,NNE,17,8.0,16.0,68,0.00,,,0.00,Wunderground v.1.15,2014-03-03 17:08:00,
2014-03-03 12:09:00,17.6,9.5,30.44,WNW,303,6.0,16.0,70,0.00,,,0.00,Wunderground v.1.15,2014-03-03 17:09:00,
2014-03-03 12:11:00,17.9,9.8,30.44,NNE,15,12.0,12.0,70,0.00,,,0.00,Wunderground v.1.15,2014-03-03 17:11:00,
2014-03-03 12:12:00,18.0,9.2,30.44,NNE,24,11.0,12.0,68,0.00,,,0.00,Wunderground v.1.15,2014-03-03 17:12:00,
2014-03-03 12:13:00,18.0,9.2,30.44,North,5,6.0,12.0,68,0.00,,,0.00,Wunderground v.1.15,2014-03-03 17:13:00,
2014-03-03 12:14:00,17.8,8.7,30.44,NNE,25,7.0,12.0,67,0.00,,,0.00,Wunderground v.1.15,2014-03-03 17:14:00,
2014-03-03 12:16:00,17.8,8.4,30.44,ENE,57,7.0,12.0,66,0.00,,,0.00,Wunderground v.1.15,2014-03-03 17:16:00,
2014-03-03 12:18:00,18.1,9.3,30.44,NNE,15,4.0,12.0,68,0.00,,,0.00,Wunderground v.1.15,2014-03-03 17:18:00,
2014-03-03 12:19:00,18.2,9.4,30.44,NNE,24,7.0,12.0,68,0.00,,,0.00,Wunderground v.1.15,2014-03-03 17:19:00,
2014-03-03 12:21:00,18.2,8.7,30.44,NNE,24,9.0,15.0,66,0.00,,,0.00,Wunderground v.1.15,2014-03-03 17:21:00,
2014-03-03 12:23:00,18.1,8.3,30.44,North,11,10.0,15.0,65,0.00,,,0.00,Wunderground v.1.15,2014-03-03 17:23:00,
2014-03-03 12:24:00,18.0,8.2,30.44,NE,51,3.0,15.0,65,0.00,,,0.00,Wunderground v.1.15,2014-03-03 17:24:00,
2014-03-03 12:26:00,18.0,8.2,30.44,North,355,1.0,15.0,65,0.00,,,0.00,Wunderground v.1.15,2014-03-03 17:26:00,
2014-03-03 12:28:00,18.2,8.7,30.44,NE,48,6.0,15.0,66,0.00,,,0.00,Wunderground v.1.15,2014-03-03 17:28:00,
2014-03-03 12:29:00,18.2,8.7,30.44,North,360,10.0,15.0,66,0.00,,,0.00,Wunderground v.1.15,2014-03-03 17:29:00,
2014-03-03 12:30:00,18.3,8.8,30.44,North,360,7.0,7.0,66,0.00,,,0.00,Wunderground v.1.15,2014-03-03 17:30:00,
2014-03-03 12:31:00,18.3,8.8,30.44,NNE,32,7.0,10.0,66,0.00,,,0.00,Wunderground v.1.15,2014-03-03 17:31:00,
2014-03-03 12:33:00,18.4,8.9,30.44,NNE,25,4.0,11.0,66,0.00,,,0.00,Wunderground v.1.15,2014-03-03 17:33:00,
2014-03-03 12:34:00,18.3,8.5,30.45,NNE,29,4.0,11.0,65,0.00,,,0.00,Wunderground v.1.15,2014-03-03 17:34:00,
2014-03-03 12:35:00,18.4,8.9,30.45,NNE,28,13.0,13.0,66,0.00,,,0.00,Wunderground v.1.15,2014-03-03 17:35:00,
2014-03-03 12:36:00,18.5,9.0,30.45,NE,38,5.0,13.0,66,0.00,,,0.00,Wunderground v.1.15,2014-03-03 17:36:00,
2014-03-03 12:37:00,18.5,9.0,30.45,NNE,28,5.0,13.0,66,0.00,,,0.00,Wunderground v.1.15,2014-03-03 17:37:00,
2014-03-03 12:38:00,18.6,9.1,30.45,NNE,14,10.0,16.0,66,0.00,,,0.00,Wunderground v.1.15,2014-03-03 17:38:00,
2014-03-03 12:39:00,18.6,8.8,30.45,North,360,8.0,16.0,65,0.00,,,0.00,Wunderground v.1.15,2014-03-03 17:39:00,
2014-03-03 12:40:00,18.7,8.9,30.45,NE,51,10.0,10.0,65,0.00,,,0.00,Wunderground v.1.15,2014-03-03 17:40:00,
2014-03-03 12:41:00,18.7,8.9,30.45,North,5,11.0,14.0,65,0.00,,,0.00,Wunderground v.1.15,2014-03-03 17:41:00,
2014-03-03 12:42:00,18.6,8.4,30.45,NNE,28,6.0,14.0,64,0.00,,,0.00,Wunderground v.1.15,2014-03-03 17:42:00,
2014-03-03 12:43:00,18.6,8.1,30.44,NNE,15,6.0,14.0,63,0.00,,,0.00,Wunderground v.1.15,2014-03-03 17:43:00,
2014-03-03 12:44:00,18.6,8.4,30.45,NNE,28,12.0,15.0,64,0.00,,,0.00,Wunderground v.1.15,2014-03-03 17:44:00,
2014-03-03 12:45:00,18.6,8.1,30.45,NNE,19,10.0,15.0,63,0.00,,,0.00,Wunderground v.1.15,2014-03-03 17:45:00,
2014-03-03 12:46:00,18.6,8.1,30.45,NW,322,4.0,15.0,63,0.00,,,0.00,Wunderground v.1.15,2014-03-03 17:46:00,
2014-03-03 12:47:00,18.5,8.0,30.45,North,9,9.0,15.0,63,0.00,,,0.00,Wunderground v.1.15,2014-03-03 17:47:00,
2014-03-03 12:48:00,18.6,8.1,30.45,NNE,19,8.0,15.0,63,0.00,,,0.00,Wunderground v.1.15,2014-03-03 17:48:00,
2014-03-03 12:49:00,18.5,8.0,30.45,NNE,17,13.0,15.0,63,0.00,,,0.00,Wunderground v.1.15,2014-03-03 17:49:00,
2014-03-03 12:51:00,18.4,7.5,30.44,North,10,8.0,11.0,62,0.00,,,0.00,Wunderground v.1.15,2014-03-03 17:51:00,
2014-03-03 12:52:00,18.5,7.6,30.45,NNE,29,6.0,12.0,62,0.00,,,0.00,Wunderground v.1.15,2014-03-03 17:52:00,
2014-03-03 12:54:00,18.5,7.6,30.44,NE,53,4.0,12.0,62,0.00,,,0.00,Wunderground v.1.15,2014-03-03 17:54:00,
2014-03-03 12:56:00,18.5,8.0,30.44,NNE,28,10.0,15.0,63,0.00,,,0.00,Wunderground v.1.15,2014-03-03 17:56:00,
2014-03-03 12:57:00,18.5,8.0,30.44,NNE,29,10.0,15.0,63,0.00,,,0.00,Wunderground v.1.15,2014-03-03 17:57:00,
2014-03-03 12:58:00,18.5,7.6,30.44,NE,42,6.0,15.0,62,0.00,,,0.00,Wunderground v.1.15,2014-03-03 17:58:00,
2014-03-03 12:59:00,18.5,8.0,30.44,NE,48,10.0,15.0,63,0.00,,,0.00,Wunderground v.1.15,2014-03-03 17:59:00,
2014-03-03 13:00:00,18.5,8.0,30.44,NE,49,8.0,8.0,63,0.00,,,0.00,Wunderground v.1.15,2014-03-03 18:00:00,
2014-03-03 13:02:00,18.5,8.0,30.44,NNE,33,7.0,9.0,63,0.00,,,0.00,Wunderground v.1.15,2014-03-03 18:02:00,
2014-03-03 13:04:00,18.8,8.6,30.44,NNE,26,3.0,9.0,64,0.00,,,0.00,Wunderground v.1.15,2014-03-03 18:04:00,
2014-03-03 13:05:00,18.9,9.1,30.44,NW,309,2.0,9.0,65,0.00,,,0.00,Wunderground v.1.15,2014-03-03 18:05:00,
2014-03-03 13:07:00,19.1,9.3,30.44,NE,45,6.0,9.0,65,0.00,,,0.00,Wunderground v.1.15,2014-03-03 18:07:00,
2014-03-03 13:09:00,19.1,8.6,30.44,NE,40,12.0,14.0,63,0.00,,,0.00,Wunderground v.1.15,2014-03-03 18:09:00,
2014-03-03 13:10:00,19.0,8.5,30.44,NE,48,8.0,11.0,63,0.00,,,0.00,Wunderground v.1.15,2014-03-03 18:10:00,
2014-03-03 13:12:00,19.0,8.1,30.44,NE,35,8.0,12.0,62,0.00,,,0.00,Wunderground v.1.15,2014-03-03 18:12:00,
2014-03-03 13:14:00,19.0,8.1,30.44,NNE,32,12.0,12.0,62,0.00,,,0.00,Wunderground v.1.15,2014-03-03 18:14:00,
2014-03-03 13:15:00,19.0,8.1,30.44,North,5,9.0,13.0,62,0.00,,,0.00,Wunderground v.1.15,2014-03-03 18:15:00,
2014-03-03 13:17:00,19.1,8.2,30.44,NE,52,7.0,13.0,62,0.00,,,0.00,Wunderground v.1.15,2014-03-03 18:17:00,
2014-03-03 13:19:00,19.2,8.7,30.44,NNE,12,2.0,13.0,63,0.00,,,0.00,Wunderground v.1.15,2014-03-03 18:19:00,
2014-03-03 13:20:00,19.3,8.8,30.44,North,11,4.0,7.0,63,0.00,,,0.00,Wunderground v.1.15,2014-03-03 18:20:00,
2014-03-03 13:21:00,19.4,9.2,30.44,North,355,4.0,7.0,64,0.00,,,0.00,Wunderground v.1.15,2014-03-03 18:21:00,
2014-03-03 13:22:00,19.4,9.2,30.44,North,355,4.0,7.0,64,0.00,,,0.00,Wunderground v.1.15,2014-03-03 18:22:00,
2014-03-03 13:23:00,19.4,9.2,30.44,North,355,4.0,7.0,64,0.00,,,0.00,Wunderground v.1.15,2014-03-03 18:23:00,
2014-03-03 13:24:00,19.7,9.1,30.43,NNE,18,7.0,11.0,63,0.00,,,0.00,Wunderground v.1.15,2014-03-03 18:24:00,
2014-03-03 13:25:00,19.8,9.6,30.44,NE,34,4.0,11.0,64,0.00,,,0.00,Wunderground v.1.15,2014-03-03 18:25:00,
2014-03-03 13:26:00,19.8,9.2,30.43,NNE,26,3.0,11.0,63,0.00,,,0.00,Wunderground v.1.15,2014-03-03 18:26:00,
2014-03-03 13:27:00,19.8,9.2,30.43,NNE,23,6.0,11.0,63,0.00,,,0.00,Wunderground v.1.15,2014-03-03 18:27:00,
2014-03-03 13:28:00,19.8,9.2,30.43,North,349,5.0,11.0,63,0.00,,,0.00,Wunderground v.1.15,2014-03-03 18:28:00,
2014-03-03 13:29:00,19.8,9.2,30.43,NNE,31,5.0,11.0,63,0.00,,,0.00,Wunderground v.1.15,2014-03-03 18:29:00,
2014-03-03 13:31:00,19.8,8.9,30.44,NE,43,7.0,10.0,62,0.00,,,0.00,Wunderground v.1.15,2014-03-03 18:31:00,
2014-03-03 13:32:00,19.8,8.9,30.43,NNE,32,7.0,10.0,62,0.00,,,0.00,Wunderground v.1.15,2014-03-03 18:32:00,
2014-03-03 13:33:00,19.7,8.8,30.43,NNE,27,4.0,10.0,62,0.00,,,0.00,Wunderground v.1.15,2014-03-03 18:33:00,
2014-03-03 13:34:00,19.8,8.9,30.44,NNE,22,12.0,13.0,62,0.00,,,0.00,Wunderground v.1.15,2014-03-03 18:34:00,
2014-03-03 13:36:00,19.7,8.8,30.43,North,11,5.0,13.0,62,0.00,,,0.00,Wunderground v.1.15,2014-03-03 18:36:00,
2014-03-03 13:38:00,19.8,8.9,30.44,NNE,30,9.0,13.0,62,0.00,,,0.00,Wunderground v.1.15,2014-03-03 18:38:00,
2014-03-03 13:39:00,19.7,8.4,30.43,NNE,33,14.0,14.0,61,0.00,,,0.00,Wunderground v.1.15,2014-03-03 18:39:00,
2014-03-03 13:40:00,19.7,8.4,30.43,NNE,19,8.0,10.0,61,0.00,,,0.00,Wunderground v.1.15,2014-03-03 18:40:00,
2014-03-03 13:41:00,19.7,8.4,30.43,NNE,19,3.0,10.0,61,0.00,,,0.00,Wunderground v.1.15,2014-03-03 18:41:00,
2014-03-03 13:43:00,19.8,8.9,30.43,ENE,57,5.0,10.0,62,0.00,,,0.00,Wunderground v.1.15,2014-03-03 18:43:00,
2014-03-03 13:44:00,19.9,9.0,30.43,NE,46,5.0,10.0,62,0.00,,,0.00,Wunderground v.1.15,2014-03-03 18:44:00,
2014-03-03 13:45:00,20.0,9.1,30.44,North,5,11.0,11.0,62,0.00,,,0.00,Wunderground v.1.15,2014-03-03 18:45:00,
2014-03-03 13:48:00,19.8,7.8,30.43,North,355,5.0,16.0,59,0.00,,,0.00,Wunderground v.1.15,2014-03-03 18:48:00,
2014-03-03 13:49:00,19.7,7.7,30.43,NNW,332,3.0,16.0,59,0.00,,,0.00,Wunderground v.1.15,2014-03-03 18:49:00,
2014-03-03 13:50:00,19.8,8.1,30.43,NW,322,8.0,13.0,60,0.00,,,0.00,Wunderground v.1.15,2014-03-03 18:50:00,
2014-03-03 13:53:00,19.8,7.8,30.43,NNW,327,10.0,15.0,59,0.00,,,0.00,Wunderground v.1.15,2014-03-03 18:53:00,
2014-03-03 13:54:00,19.7,7.3,30.43,North,5,4.0,15.0,58,0.00,,,0.00,Wunderground v.1.15,2014-03-03 18:54:00,
2014-03-03 13:55:00,19.6,7.2,30.43,NNE,13,4.0,15.0,58,0.00,,,0.00,Wunderground v.1.15,2014-03-03 18:55:00,
2014-03-03 13:58:00,19.8,7.8,30.43,NE,38,16.0,17.0,59,0.00,,,0.00,Wunderground v.1.15,2014-03-03 18:58:00,
2014-03-03 13:59:00,19.7,6.9,30.43,NE,40,10.0,17.0,57,0.00,,,0.00,Wunderground v.1.15,2014-03-03 18:59:00,
2014-03-03 14:00:00,19.7,6.9,30.43,NNE,28,8.0,10.0,57,0.00,,,0.00,Wunderground v.1.15,2014-03-03 19:00:00,
2014-03-03 14:03:00,19.8,7.0,30.43,North,355,5.0,10.0,57,0.00,,,0.00,Wunderground v.1.15,2014-03-03 19:03:00,
2014-03-03 14:04:00,19.8,7.0,30.43,NNW,333,1.0,10.0,57,0.00,,,0.00,Wunderground v.1.15,2014-03-03 19:04:00,
2014-03-03 14:05:00,19.9,7.5,30.43,NE,40,2.0,10.0,58,0.00,,,0.00,Wunderground v.1.15,2014-03-03 19:05:00,
2014-03-03 14:06:00,20.0,7.6,30.43,NNW,328,6.0,10.0,58,0.00,,,0.00,Wunderground v.1.15,2014-03-03 19:06:00,
2014-03-03 14:08:00,20.2,7.0,30.43,NE,36,8.0,12.0,56,0.00,,,0.00,Wunderground v.1.15,2014-03-03 19:08:00,
2014-03-03 14:09:00,20.2,7.0,30.43,NNE,26,11.0,12.0,56,0.00,,,0.00,Wunderground v.1.15,2014-03-03 19:09:00,
2014-03-03 14:10:00,20.1,6.9,30.43,NE,50,6.0,7.0,56,0.00,,,0.00,Wunderground v.1.15,2014-03-03 19:10:00,
2014-03-03 14:11:00,20.0,6.8,30.43,North,5,2.0,9.0,56,0.00,,,0.00,Wunderground v.1.15,2014-03-03 19:11:00,
2014-03-03 14:14:00,20.3,7.9,30.43,North,349,8.0,9.0,58,0.00,,,0.00,Wunderground v.1.15,2014-03-03 19:14:00,
2014-03-03 14:15:00,20.4,8.0,30.43,NNW,332,2.0,12.0,58,0.00,,,0.00,Wunderground v.1.15,2014-03-03 19:15:00,
2014-03-03 14:16:00,20.5,8.0,30.43,ENE,61,7.0,12.0,58,0.00,,,0.00,Wunderground v.1.15,2014-03-03 19:16:00,
2014-03-03 14:17:00,20.5,7.7,30.43,East,82,5.0,12.0,57,0.00,,,0.00,Wunderground v.1.15,2014-03-03 19:17:00,
2014-03-03 14:19:00,20.5,8.0,30.44,NNE,30,4.0,12.0,58,0.00,,,0.00,Wunderground v.1.15,2014-03-03 19:19:00,
2014-03-03 14:20:00,20.5,8.0,30.44,North,11,3.0,6.0,58,0.00,,,0.00,Wunderground v.1.15,2014-03-03 19:20:00,
2014-03-03 14:21:00,20.5,8.4,30.44,North,11,1.0,6.0,59,0.00,,,0.00,Wunderground v.1.15,2014-03-03 19:21:00,
2014-03-03 14:22:00,20.7,8.6,30.44,NNE,32,8.0,8.0,59,0.00,,,0.00,Wunderground v.1.15,2014-03-03 19:22:00,
2014-03-03 14:25:00,20.5,7.3,30.43,NE,39,11.0,14.0,56,0.00,,,0.00,Wunderground v.1.15,2014-03-03 19:25:00,
2014-03-03 14:26:00,20.3,6.3,30.43,NNW,348,6.0,14.0,54,0.00,,,0.00,Wunderground v.1.15,2014-03-03 19:26:00,
2014-03-03 14:27:00,20.2,6.2,30.43,NNW,340,6.0,14.0,54,0.00,,,0.00,Wunderground v.1.15,2014-03-03 19:27:00,
2014-03-03 14:30:00,20.3,6.3,30.43,North,11,8.0,9.0,54,0.00,,,0.00,Wunderground v.1.15,2014-03-03 19:30:00,
2014-03-03 14:31:00,20.3,6.7,30.44,NE,40,2.0,12.0,55,0.00,,,0.00,Wunderground v.1.15,2014-03-03 19:31:00,
2014-03-03 14:33:00,20.4,6.4,30.44,NE,41,2.0,12.0,54,0.00,,,0.00,Wunderground v.1.15,2014-03-03 19:33:00,
2014-03-03 14:35:00,20.4,6.4,30.43,NE,40,6.0,12.0,54,0.00,,,0.00,Wunderground v.1.15,2014-03-03 19:35:00,
2014-03-03 14:36:00,20.5,6.5,30.44,North,5,4.0,12.0,54,0.00,,,0.00,Wunderground v.1.15,2014-03-03 19:36:00,
2014-03-03 14:37:00,20.6,7.0,30.44,NNW,342,5.0,12.0,55,0.00,,,0.00,Wunderground v.1.15,2014-03-03 19:37:00,
2014-03-03 14:38:00,20.7,7.1,30.44,NNW,339,5.0,12.0,55,0.00,,,0.00,Wunderground v.1.15,2014-03-03 19:38:00,
2014-03-03 14:41:00,20.9,6.8,30.44,North,10,7.0,7.0,54,0.00,,,0.00,Wunderground v.1.15,2014-03-03 19:41:00,
2014-03-03 14:42:00,20.9,6.8,30.44,NE,34,7.0,10.0,54,0.00,,,0.00,Wunderground v.1.15,2014-03-03 19:42:00,
2014-03-03 14:44:00,20.8,6.7,30.44,NNE,32,9.0,11.0,54,0.00,,,0.00,Wunderground v.1.15,2014-03-03 19:44:00,
2014-03-03 14:46:00,20.7,6.2,30.44,North,360,13.0,13.0,53,0.00,,,0.00,Wunderground v.1.15,2014-03-03 19:46:00,
2014-03-03 14:47:00,20.6,6.2,30.44,NE,38,9.0,13.0,53,0.00,,,0.00,Wunderground v.1.15,2014-03-03 19:47:00,
2014-03-03 14:48:00,20.7,5.8,30.44,NE,46,8.0,13.0,52,0.00,,,0.00,Wunderground v.1.15,2014-03-03 19:48:00,
2014-03-03 14:49:00,20.6,5.7,30.44,North,5,2.0,13.0,52,0.00,,,0.00,Wunderground v.1.15,2014-03-03 19:49:00,
2014-03-03 14:51:00,20.8,6.7,30.44,NW,326,3.0,10.0,54,0.00,,,0.00,Wunderground v.1.15,2014-03-03 19:51:00,
2014-03-03 14:52:00,20.9,6.8,30.44,North,350,2.0,10.0,54,0.00,,,0.00,Wunderground v.1.15,2014-03-03 19:52:00,
2014-03-03 14:53:00,21.0,6.9,30.44,North,350,2.0,10.0,54,0.00,,,0.00,Wunderground v.1.15,2014-03-03 19:53:00,
2014-03-03 14:54:00,21.1,7.0,30.44,NE,36,8.0,10.0,54,0.00,,,0.00,Wunderground v.1.15,2014-03-03 19:54:00,
2014-03-03 14:57:00,21.2,5.9,30.45,North,349,11.0,11.0,51,0.00,,,0.00,Wunderground v.1.15,2014-03-03 19:57:00,
2014-03-03 14:58:00,21.2,5.9,30.45,NNE,19,8.0,11.0,51,0.00,,,0.00,Wunderground v.1.15,2014-03-03 19:58:00,
2014-03-03 14:59:00,21.2,6.3,30.45,NNE,15,8.0,11.0,52,0.00,,,0.00,Wunderground v.1.15,2014-03-03 19:59:00,
2014-03-03 15:03:00,21.1,5.8,30.45,NNE,14,4.0,9.0,51,0.00,,,0.00,Wunderground v.1.15,2014-03-03 20:03:00,
2014-03-03 15:04:00,21.1,6.2,30.45,NNE,28,7.0,9.0,52,0.00,,,0.00,Wunderground v.1.15,2014-03-03 20:04:00,
2014-03-03 15:08:00,21.2,6.3,30.45,NNW,337,7.0,9.0,52,0.00,,,0.00,Wunderground v.1.15,2014-03-03 20:08:00,
2014-03-03 15:09:00,21.2,6.3,30.45,NNW,327,5.0,9.0,52,0.00,,,0.00,Wunderground v.1.15,2014-03-03 20:09:00,
2014-03-03 15:10:00,21.1,6.2,30.45,NW,319,5.0,6.0,52,0.00,,,0.00,Wunderground v.1.15,2014-03-03 20:10:00,
2014-03-03 15:13:00,20.9,6.0,30.45,NNW,333,0.0,11.0,52,0.00,,,0.00,Wunderground v.1.15,2014-03-03 20:13:00,
2014-03-03 15:14:00,21.0,6.5,30.45,NNW,334,1.0,11.0,53,0.00,,,0.00,Wunderground v.1.15,2014-03-03 20:14:00,
2014-03-03 15:15:00,21.2,7.1,30.45,North,11,5.0,11.0,54,0.00,,,0.00,Wunderground v.1.15,2014-03-03 20:15:00,
2014-03-03 15:16:00,21.3,7.6,30.45,North,360,10.0,11.0,55,0.00,,,0.00,Wunderground v.1.15,2014-03-03 20:16:00,
2014-03-03 15:18:00,21.3,6.4,30.45,NW,315,4.0,11.0,52,0.00,,,0.00,Wunderground v.1.15,2014-03-03 20:18:00,
2014-03-03 15:19:00,21.3,6.4,30.45,North,9,6.0,11.0,52,0.00,,,0.00,Wunderground v.1.15,2014-03-03 20:19:00,
2014-03-03 15:20:00,21.2,6.3,30.45,NW,304,4.0,7.0,52,0.00,,,0.00,Wunderground v.1.15,2014-03-03 20:20:00,
2014-03-03 15:21:00,21.2,6.3,30.45,North,360,5.0,7.0,52,0.00,,,0.00,Wunderground v.1.15,2014-03-03 20:21:00,
2014-03-03 15:24:00,21.4,6.9,30.45,NNW,348,6.0,7.0,53,0.00,,,0.00,Wunderground v.1.15,2014-03-03 20:24:00,
2014-03-03 15:25:00,21.5,7.0,30.45,NW,315,7.0,8.0,53,0.00,,,0.00,Wunderground v.1.15,2014-03-03 20:25:00,
2014-03-03 15:26:00,21.5,6.6,30.45,NNW,333,4.0,8.0,52,0.00,,,0.00,Wunderground v.1.15,2014-03-03 20:26:00,
2014-03-03 15:28:00,21.4,6.0,30.45,NE,49,5.0,10.0,51,0.00,,,0.00,Wunderground v.1.15,2014-03-03 20:28:00,
2014-03-03 15:29:00,21.3,6.0,30.45,ENE,70,4.0,10.0,51,0.00,,,0.00,Wunderground v.1.15,2014-03-03 20:29:00,
2014-03-03 15:30:00,21.3,6.0,30.45,NE,44,2.0,5.0,51,0.00,,,0.00,Wunderground v.1.15,2014-03-03 20:30:00,
2014-03-03 15:32:00,21.1,5.8,30.45,NE,42,4.0,11.0,51,0.00,,,0.00,Wunderground v.1.15,2014-03-03 20:32:00,
2014-03-03 15:33:00,21.0,5.7,30.45,NNE,32,6.0,11.0,51,0.00,,,0.00,Wunderground v.1.15,2014-03-03 20:33:00,
2014-03-03 15:34:00,20.9,5.6,30.45,NNE,12,2.0,11.0,51,0.00,,,0.00,Wunderground v.1.15,2014-03-03 20:34:00,
2014-03-03 15:35:00,21.0,6.1,30.45,NNE,17,3.0,11.0,52,0.00,,,0.00,Wunderground v.1.15,2014-03-03 20:35:00,
2014-03-03 15:39:00,20.8,5.5,30.45,NNE,15,4.0,16.0,51,0.00,,,0.00,Wunderground v.1.15,2014-03-03 20:39:00,
2014-03-03 15:40:00,20.7,5.4,30.45,NNE,24,4.0,6.0,51,0.00,,,0.00,Wunderground v.1.15,2014-03-03 20:40:00,
2014-03-03 15:41:00,20.8,5.9,30.45,NNE,26,3.0,6.0,52,0.00,,,0.00,Wunderground v.1.15,2014-03-03 20:41:00,
2014-03-03 15:44:00,21.2,6.7,30.45,NW,321,7.0,8.0,53,0.00,,,0.00,Wunderground v.1.15,2014-03-03 20:44:00,
2014-03-03 15:45:00,21.3,6.4,30.45,NNW,338,7.0,8.0,52,0.00,,,0.00,Wunderground v.1.15,2014-03-03 20:45:00,
2014-03-03 15:46:00,21.1,5.3,30.45,NNW,335,8.0,11.0,50,0.00,,,0.00,Wunderground v.1.15,2014-03-03 20:46:00,
2014-03-03 15:49:00,20.9,4.7,30.45,North,355,5.0,11.0,49,0.00,,,0.00,Wunderground v.1.15,2014-03-03 20:49:00,
2014-03-03 15:50:00,21.0,5.2,30.45,NW,321,6.0,6.0,50,0.00,,,0.00,Wunderground v.1.15,2014-03-03 20:50:00,
2014-03-03 15:51:00,21.0,5.7,30.45,NW,324,5.0,6.0,51,0.00,,,0.01,Wunderground v.1.15,2014-03-03 20:51:00,
2014-03-03 15:52:00,21.1,5.8,30.45,North,10,5.0,7.0,51,0.00,,,0.01,Wunderground v.1.15,2014-03-03 20:52:00,
2014-03-03 15:54:00,21.2,6.3,30.45,NNE,30,7.0,7.0,52,0.00,,,0.01,Wunderground v.1.15,2014-03-03 20:54:00,
2014-03-03 15:55:00,21.2,6.3,30.45,NE,40,8.0,8.0,52,0.00,,,0.01,Wunderground v.1.15,2014-03-03 20:55:00,
2014-03-03 15:56:00,21.2,5.9,30.45,North,5,6.0,10.0,51,0.13,,,0.02,Wunderground v.1.15,2014-03-03 20:56:00,
2014-03-03 15:57:00,21.2,5.9,30.45,North,5,7.0,10.0,51,0.13,,,0.02,Wunderground v.1.15,2014-03-03 20:57:00,
2014-03-03 16:00:00,21.2,5.4,30.46,NE,45,7.0,7.0,50,0.23,,,0.03,Wunderground v.1.15,2014-03-03 21:00:00,
2014-03-03 16:01:00,21.2,5.4,30.45,NNW,336,6.0,7.0,50,0.14,,,0.03,Wunderground v.1.15,2014-03-03 21:01:00,
2014-03-03 16:02:00,21.2,5.4,30.45,NNE,13,2.0,7.0,50,0.13,,,0.03,Wunderground v.1.15,2014-03-03 21:02:00,
2014-03-03 16:03:00,21.3,6.0,30.46,NNE,24,7.0,11.0,51,0.10,,,0.03,Wunderground v.1.15,2014-03-03 21:03:00,
2014-03-03 16:06:00,21.2,5.4,30.46,NW,322,6.0,11.0,50,0.07,,,0.03,Wunderground v.1.15,2014-03-03 21:06:00,
2014-03-03 16:07:00,21.2,5.9,30.46,North,351,5.0,12.0,51,0.06,,,0.03,Wunderground v.1.15,2014-03-03 21:07:00,
2014-03-03 16:08:00,21.2,5.4,30.46,NNW,336,5.0,12.0,50,0.06,,,0.03,Wunderground v.1.15,2014-03-03 21:08:00,
2014-03-03 16:09:00,21.2,5.4,30.46,North,5,5.0,12.0,50,0.05,,,0.03,Wunderground v.1.15,2014-03-03 21:09:00,
2014-03-03 16:11:00,21.0,4.8,30.46,NE,38,11.0,11.0,49,0.04,,,0.03,Wunderground v.1.15,2014-03-03 21:11:00,
2014-03-03 16:12:00,20.9,4.7,30.46,NE,53,7.0,14.0,49,0.04,,,0.03,Wunderground v.1.15,2014-03-03 21:12:00,
2014-03-03 16:13:00,20.9,4.7,30.46,NNE,26,6.0,14.0,49,0.04,,,0.03,Wunderground v.1.15,2014-03-03 21:13:00,
2014-03-03 16:14:00,20.8,4.6,30.46,NNE,32,6.0,14.0,49,0.04,,,0.03,Wunderground v.1.15,2014-03-03 21:14:00,
2014-03-03 16:16:00,20.8,4.6,30.46,NE,42,7.0,14.0,49,0.00,,,0.03,Wunderground v.1.15,2014-03-03 21:16:00,
2014-03-03 16:17:00,20.8,4.6,30.46,NE,38,6.0,14.0,49,0.00,,,0.03,Wunderground v.1.15,2014-03-03 21:17:00,
2014-03-03 16:19:00,20.7,4.5,30.46,NNE,14,6.0,14.0,49,0.00,,,0.03,Wunderground v.1.15,2014-03-03 21:19:00,
2014-03-03 16:21:00,20.9,4.7,30.46,North,5,8.0,9.0,49,0.00,,,0.03,Wunderground v.1.15,2014-03-03 21:21:00,
2014-03-03 16:22:00,20.9,4.7,30.46,NE,49,9.0,9.0,49,0.00,,,0.03,Wunderground v.1.15,2014-03-03 21:22:00,
2014-03-03 16:24:00,20.9,4.7,30.46,NNW,347,4.0,9.0,49,0.00,,,0.03,Wunderground v.1.15,2014-03-03 21:24:00,
2014-03-03 16:26:00,20.9,4.7,30.46,NNW,342,5.0,9.0,49,0.00,,,0.03,Wunderground v.1.15,2014-03-03 21:26:00,
2014-03-03 16:27:00,20.9,4.3,30.46,North,350,4.0,9.0,48,0.00,,,0.03,Wunderground v.1.15,2014-03-03 21:27:00,
2014-03-03 16:28:00,20.8,4.2,30.46,North,11,5.0,9.0,48,0.00,,,0.03,Wunderground v.1.15,2014-03-03 21:28:00,
2014-03-03 16:29:00,20.9,4.7,30.46,NE,55,6.0,9.0,49,0.00,,,0.03,Wunderground v.1.15,2014-03-03 21:29:00,
2014-03-03 16:31:00,21.0,5.2,30.46,NNW,341,6.0,9.0,50,0.00,,,0.03,Wunderground v.1.15,2014-03-03 21:31:00,
2014-03-03 16:32:00,21.0,4.8,30.46,NNW,348,7.0,10.0,49,0.00,,,0.03,Wunderground v.1.15,2014-03-03 21:32:00,
2014-03-03 16:33:00,20.9,4.7,30.46,NNW,337,6.0,11.0,49,0.00,,,0.03,Wunderground v.1.15,2014-03-03 21:33:00,
2014-03-03 16:35:00,20.8,4.6,30.46,North,360,7.0,11.0,49,0.00,,,0.03,Wunderground v.1.15,2014-03-03 21:35:00,
2014-03-03 16:36:00,20.9,4.7,30.47,North,349,2.0,11.0,49,0.00,,,0.03,Wunderground v.1.15,2014-03-03 21:36:00,
2014-03-03 16:38:00,21.0,5.2,30.47,NNE,32,4.0,11.0,50,0.00,,,0.03,Wunderground v.1.15,2014-03-03 21:38:00,
2014-03-03 16:39:00,21.1,5.8,30.47,NE,36,6.0,11.0,51,0.00,,,0.03,Wunderground v.1.15,2014-03-03 21:39:00,
2014-03-03 16:40:00,21.1,5.3,30.47,NE,46,8.0,10.0,50,0.00,,,0.03,Wunderground v.1.15,2014-03-03 21:40:00,
2014-03-03 16:41:00,21.1,4.9,30.47,NNW,348,3.0,10.0,49,0.00,,,0.03,Wunderground v.1.15,2014-03-03 21:41:00,
2014-03-03 16:43:00,21.1,4.9,30.47,North,5,3.0,10.0,49,0.00,,,0.03,Wunderground v.1.15,2014-03-03 21:43:00,
2014-03-03 16:44:00,21.0,4.8,30.47,NE,45,6.0,10.0,49,0.00,,,0.03,Wunderground v.1.15,2014-03-03 21:44:00,
2014-03-03 16:45:00,21.0,4.8,30.47,ENE,62,8.0,10.0,49,0.00,,,0.03,Wunderground v.1.15,2014-03-03 21:45:00,
2014-03-03 16:46:00,21.0,5.2,30.47,NNE,19,9.0,10.0,50,0.00,,,0.03,Wunderground v.1.15,2014-03-03 21:46:00,
2014-03-03 16:47:00,21.0,4.8,30.47,NE,47,6.0,11.0,49,0.00,,,0.03,Wunderground v.1.15,2014-03-03 21:47:00,
2014-03-03 16:48:00,20.9,4.7,30.47,North,10,3.0,11.0,49,0.00,,,0.03,Wunderground v.1.15,2014-03-03 21:48:00,
2014-03-03 16:49:00,20.9,4.7,30.47,North,360,3.0,11.0,49,0.00,,,0.03,Wunderground v.1.15,2014-03-03 21:49:00,
2014-03-03 16:50:00,20.9,4.7,30.47,ENE,67,3.0,5.0,49,0.00,,,0.03,Wunderground v.1.15,2014-03-03 21:50:00,
2014-03-03 16:51:00,20.9,5.2,30.47,NE,49,7.0,8.0,50,0.00,,,0.03,Wunderground v.1.15,2014-03-03 21:51:00,
2014-03-03 16:52:00,20.9,5.2,30.47,NE,40,4.0,8.0,50,0.00,,,0.03,Wunderground v.1.15,2014-03-03 21:52:00,
2014-03-03 16:53:00,20.9,4.7,30.46,NW,314,3.0,8.0,49,0.00,,,0.03,Wunderground v.1.15,2014-03-03 21:53:00,
2014-03-03 16:54:00,20.9,5.2,30.46,NW,319,3.0,8.0,50,0.00,,,0.03,Wunderground v.1.15,2014-03-03 21:54:00,
2014-03-03 16:55:00,21.0,5.2,30.46,NNW,348,7.0,8.0,50,0.00,,,0.03,Wunderground v.1.15,2014-03-03 21:55:00,
2014-03-03 16:56:00,21.2,5.4,30.47,NNE,17,6.0,8.0,50,0.00,,,0.03,Wunderground v.1.15,2014-03-03 21:56:00,
2014-03-03 16:57:00,21.2,5.4,30.47,North,360,9.0,9.0,50,0.00,,,0.03,Wunderground v.1.15,2014-03-03 21:57:00,
2014-03-03 16:58:00,21.0,4.8,30.46,NNE,15,2.0,10.0,49,0.00,,,0.03,Wunderground v.1.15,2014-03-03 21:58:00,
2014-03-03 16:59:00,21.0,4.8,30.46,NW,309,6.0,10.0,49,0.00,,,0.03,Wunderground v.1.15,2014-03-03 21:59:00,
2014-03-03 17:00:00,20.9,4.7,30.46,NNE,24,3.0,6.0,49,0.00,,,0.03,Wunderground v.1.15,2014-03-03 22:00:00,
2014-03-03 17:01:00,20.9,4.7,30.46,North,355,2.0,6.0,49,0.00,,,0.03,Wunderground v.1.15,2014-03-03 22:01:00,
2014-03-03 17:02:00,20.9,5.2,30.47,North,5,4.0,7.0,50,0.00,,,0.03,Wunderground v.1.15,2014-03-03 22:02:00,
2014-03-03 17:04:00,21.0,5.7,30.47,NNE,30,4.0,7.0,51,0.00,,,0.03,Wunderground v.1.15,2014-03-03 22:04:00,
2014-03-03 17:05:00,21.0,5.2,30.46,NE,53,6.0,10.0,50,0.00,,,0.03,Wunderground v.1.15,2014-03-03 22:05:00,
2014-03-03 17:06:00,20.9,5.2,30.46,NNE,19,2.0,10.0,50,0.00,,,0.03,Wunderground v.1.15,2014-03-03 22:06:00,
2014-03-03 17:07:00,20.9,5.2,30.46,NNE,13,1.0,10.0,50,0.00,,,0.03,Wunderground v.1.15,2014-03-03 22:07:00,
2014-03-03 17:08:00,20.9,5.2,30.46,NNE,13,1.0,10.0,50,0.00,,,0.03,Wunderground v.1.15,2014-03-03 22:08:00,
2014-03-03 17:09:00,21.0,5.7,30.45,NE,41,5.0,10.0,51,0.00,,,0.03,Wunderground v.1.15,2014-03-03 22:09:00,
2014-03-03 17:10:00,21.0,5.7,30.45,NNE,19,3.0,6.0,51,0.00,,,0.03,Wunderground v.1.15,2014-03-03 22:10:00,
2014-03-03 17:11:00,21.0,5.7,30.45,NNE,17,3.0,8.0,51,0.00,,,0.03,Wunderground v.1.15,2014-03-03 22:11:00,
2014-03-03 17:13:00,20.9,5.2,30.45,NE,55,7.0,11.0,50,0.00,,,0.03,Wunderground v.1.15,2014-03-03 22:13:00,
2014-03-03 17:14:00,20.9,5.2,30.45,ENE,59,9.0,11.0,50,0.00,,,0.03,Wunderground v.1.15,2014-03-03 22:14:00,
2014-03-03 17:15:00,20.7,4.5,30.45,NE,36,6.0,11.0,49,0.00,,,0.03,Wunderground v.1.15,2014-03-03 22:15:00,
2014-03-03 17:16:00,20.6,4.4,30.46,NE,55,4.0,11.0,49,0.00,,,0.03,Wunderground v.1.15,2014-03-03 22:16:00,
2014-03-03 17:19:00,20.5,4.8,30.46,NNE,30,1.0,11.0,50,0.00,,,0.03,Wunderground v.1.15,2014-03-03 22:19:00,
2014-03-03 17:21:00,20.5,5.2,30.46,NE,34,1.0,6.0,51,0.00,,,0.03,Wunderground v.1.15,2014-03-03 22:21:00,
2014-03-03 17:24:00,20.6,5.3,30.45,NE,38,8.0,11.0,51,0.00,,,0.04,Wunderground v.1.15,2014-03-03 22:24:00,
2014-03-03 17:25:00,20.6,5.3,30.46,NNE,14,2.0,11.0,51,0.00,,,0.04,Wunderground v.1.15,2014-03-03 22:25:00,
2014-03-03 17:26:00,20.5,5.2,30.46,ENE,62,8.0,11.0,51,0.00,,,0.04,Wunderground v.1.15,2014-03-03 22:26:00,
2014-03-03 17:27:00,20.4,4.7,30.46,NNW,344,5.0,11.0,50,0.00,,,0.04,Wunderground v.1.15,2014-03-03 22:27:00,
2014-03-03 17:30:00,20.5,5.2,30.46,NNW,337,7.0,7.0,51,0.00,,,0.04,Wunderground v.1.15,2014-03-03 22:30:00,
2014-03-03 17:31:00,20.6,5.3,30.46,NNE,14,4.0,7.0,51,0.00,,,0.04,Wunderground v.1.15,2014-03-03 22:31:00,
2014-03-03 17:32:00,20.6,5.3,30.46,NNE,15,3.0,7.0,51,0.00,,,0.04,Wunderground v.1.15,2014-03-03 22:32:00,
2014-03-03 17:35:00,20.6,4.9,30.46,NNE,18,4.0,9.0,50,0.00,,,0.04,Wunderground v.1.15,2014-03-03 22:35:00,
2014-03-03 17:36:00,20.6,4.9,30.46,NNE,15,4.0,9.0,50,0.00,,,0.04,Wunderground v.1.15,2014-03-03 22:36:00,
2014-03-03 17:37:00,20.5,5.2,30.46,North,5,3.0,9.0,51,0.00,,,0.04,Wunderground v.1.15,2014-03-03 22:37:00,
2014-03-03 17:38:00,20.5,5.2,30.46,North,5,4.0,9.0,51,0.00,,,0.04,Wunderground v.1.15,2014-03-03 22:38:00,
2014-03-03 17:40:00,20.6,5.7,30.46,North,355,4.0,5.0,52,0.00,,,0.04,Wunderground v.1.15,2014-03-03 22:40:00,
2014-03-03 17:41:00,20.7,5.8,30.46,North,10,5.0,6.0,52,0.00,,,0.04,Wunderground v.1.15,2014-03-03 22:41:00,
2014-03-03 17:43:00,20.7,5.8,30.46,NNW,335,3.0,7.0,52,0.00,,,0.04,Wunderground v.1.15,2014-03-03 22:43:00,
2014-03-03 17:45:00,20.7,5.4,30.46,NNE,16,8.0,8.0,51,0.00,,,0.04,Wunderground v.1.15,2014-03-03 22:45:00,
2014-03-03 17:46:00,20.6,5.3,30.46,North,11,6.0,9.0,51,0.00,,,0.04,Wunderground v.1.15,2014-03-03 22:46:00,
2014-03-03 17:47:00,20.5,5.2,30.46,NE,36,7.0,9.0,51,0.00,,,0.04,Wunderground v.1.15,2014-03-03 22:47:00,
2014-03-03 17:48:00,20.4,5.1,30.46,NNE,14,5.0,9.0,51,0.00,,,0.04,Wunderground v.1.15,2014-03-03 22:48:00,
2014-03-03 17:49:00,20.4,5.1,30.46,ENE,59,7.0,9.0,51,0.00,,,0.04,Wunderground v.1.15,2014-03-03 22:49:00,
2014-03-03 17:50:00,20.4,5.1,30.46,NNE,31,2.0,5.0,51,0.00,,,0.04,Wunderground v.1.15,2014-03-03 22:50:00,
2014-03-03 17:51:00,20.4,5.5,30.46,NNW,332,4.0,6.0,52,0.00,,,0.04,Wunderground v.1.15,2014-03-03 22:51:00,
2014-03-03 17:52:00,20.4,5.5,30.46,North,5,4.0,8.0,52,0.00,,,0.04,Wunderground v.1.15,2014-03-03 22:52:00,
2014-03-03 17:53:00,20.4,5.5,30.47,NNE,21,6.0,8.0,52,0.00,,,0.04,Wunderground v.1.15,2014-03-03 22:53:00,
2014-03-03 17:54:00,20.4,5.1,30.47,NNW,337,4.0,8.0,51,0.00,,,0.04,Wunderground v.1.15,2014-03-03 22:54:00,
2014-03-03 17:56:00,20.4,5.1,30.47,NNW,338,1.0,8.0,51,0.00,,,0.04,Wunderground v.1.15,2014-03-03 22:56:00,
2014-03-03 17:57:00,20.3,5.0,30.47,NNW,338,2.0,8.0,51,0.00,,,0.04,Wunderground v.1.15,2014-03-03 22:57:00,
2014-03-03 17:58:00,20.3,5.5,30.47,NNE,15,2.0,8.0,52,0.00,,,0.04,Wunderground v.1.15,2014-03-03 22:58:00,
2014-03-03 18:00:00,20.4,5.5,30.47,NE,35,4.0,4.0,52,0.00,,,0.04,Wunderground v.1.15,2014-03-03 23:00:00,
2014-03-03 18:01:00,20.3,5.5,30.47,NNW,342,4.0,5.0,52,0.00,,,0.04,Wunderground v.1.15,2014-03-03 23:01:00,
2014-03-03 18:03:00,20.3,5.5,30.47,NE,34,5.0,6.0,52,0.00,,,0.04,Wunderground v.1.15,2014-03-03 23:03:00,
2014-03-03 18:04:00,20.2,5.4,30.47,NE,35,4.0,6.0,52,0.00,,,0.04,Wunderground v.1.15,2014-03-03 23:04:00,
2014-03-03 18:05:00,20.2,5.4,30.47,NE,50,5.0,11.0,52,0.00,,,0.04,Wunderground v.1.15,2014-03-03 23:05:00,
2014-03-03 18:06:00,20.1,5.3,30.47,NNE,30,2.0,11.0,52,0.00,,,0.04,Wunderground v.1.15,2014-03-03 23:06:00,
2014-03-03 18:07:00,20.0,5.2,30.47,NNE,30,1.0,11.0,52,0.00,,,0.04,Wunderground v.1.15,2014-03-03 23:07:00,
2014-03-03 18:08:00,20.0,5.2,30.47,NNE,22,3.0,11.0,52,0.00,,,0.04,Wunderground v.1.15,2014-03-03 23:08:00,
2014-03-03 18:09:00,20.0,5.2,30.47,NNE,22,4.0,11.0,52,0.00,,,0.04,Wunderground v.1.15,2014-03-03 23:09:00,
2014-03-03 18:11:00,20.0,5.6,30.48,NNE,13,2.0,4.0,53,0.00,,,0.04,Wunderground v.1.15,2014-03-03 23:11:00,
2014-03-03 18:12:00,20.0,5.6,30.48,NW,323,3.0,4.0,53,0.00,,,0.04,Wunderground v.1.15,2014-03-03 23:12:00,
2014-03-03 18:14:00,20.0,5.6,30.48,NNW,335,4.0,5.0,53,0.00,,,0.04,Wunderground v.1.15,2014-03-03 23:14:00,
2014-03-03 18:16:00,20.0,5.6,30.48,NNW,336,2.0,5.0,53,0.00,,,0.04,Wunderground v.1.15,2014-03-03 23:16:00,
2014-03-03 18:17:00,20.0,5.6,30.48,NNW,335,2.0,5.0,53,0.00,,,0.04,Wunderground v.1.15,2014-03-03 23:17:00,
2014-03-03 18:19:00,19.9,5.5,30.48,NNW,340,3.0,6.0,53,0.00,,,0.04,Wunderground v.1.15,2014-03-03 23:19:00,
2014-03-03 18:20:00,19.8,5.4,30.48,NNW,340,2.0,3.0,53,0.00,,,0.04,Wunderground v.1.15,2014-03-03 23:20:00,
2014-03-03 18:22:00,19.8,5.8,30.48,NNW,342,2.0,4.0,54,0.00,,,0.04,Wunderground v.1.15,2014-03-03 23:22:00,
2014-03-03 18:24:00,19.7,5.7,30.48,NNW,342,2.0,4.0,54,0.00,,,0.04,Wunderground v.1.15,2014-03-03 23:24:00,
2014-03-03 18:25:00,19.7,5.7,30.48,NNE,17,7.0,7.0,54,0.00,,,0.04,Wunderground v.1.15,2014-03-03 23:25:00,
2014-03-03 18:27:00,19.4,5.4,30.48,NNE,20,4.0,8.0,54,0.00,,,0.04,Wunderground v.1.15,2014-03-03 23:27:00,
2014-03-03 18:29:00,19.4,5.4,30.48,NNE,22,1.0,8.0,54,0.00,,,0.04,Wunderground v.1.15,2014-03-03 23:29:00,
2014-03-03 18:30:00,19.3,5.3,30.48,NNE,21,3.0,4.0,54,0.00,,,0.04,Wunderground v.1.15,2014-03-03 23:30:00,
2014-03-03 18:31:00,19.3,5.3,30.48,North,5,5.0,7.0,54,0.00,,,0.04,Wunderground v.1.15,2014-03-03 23:31:00,
2014-03-03 18:32:00,19.2,5.3,30.48,North,10,3.0,7.0,54,0.00,,,0.04,Wunderground v.1.15,2014-03-03 23:32:00,
2014-03-03 18:34:00,19.1,5.2,30.48,NNE,29,4.0,7.0,54,0.00,,,0.04,Wunderground v.1.15,2014-03-03 23:34:00,
2014-03-03 18:35:00,19.1,5.2,30.48,NNE,31,3.0,7.0,54,0.00,,,0.04,Wunderground v.1.15,2014-03-03 23:35:00,
2014-03-03 18:37:00,19.0,5.5,30.48,NNE,28,1.0,7.0,55,0.00,,,0.04,Wunderground v.1.15,2014-03-03 23:37:00,
2014-03-03 18:38:00,19.0,5.5,30.48,NNE,24,3.0,7.0,55,0.00,,,0.04,Wunderground v.1.15,2014-03-03 23:38:00,
2014-03-03 18:39:00,18.9,5.4,30.48,NNE,20,5.0,7.0,55,0.00,,,0.04,Wunderground v.1.15,2014-03-03 23:39:00,
2014-03-03 18:40:00,18.9,5.4,30.48,North,11,3.0,3.0,55,0.00,,,0.04,Wunderground v.1.15,2014-03-03 23:40:00,
2014-03-03 18:42:00,18.8,5.3,30.48,North,5,2.0,5.0,55,0.00,,,0.04,Wunderground v.1.15,2014-03-03 23:42:00,
2014-03-03 18:43:00,18.8,5.3,30.48,NNE,28,4.0,5.0,55,0.00,,,0.04,Wunderground v.1.15,2014-03-03 23:43:00,
2014-03-03 18:44:00,18.7,5.2,30.48,NNE,27,2.0,5.0,55,0.00,,,0.04,Wunderground v.1.15,2014-03-03 23:44:00,
2014-03-03 18:45:00,18.7,5.2,30.48,NE,42,2.0,5.0,55,0.00,,,0.04,Wunderground v.1.15,2014-03-03 23:45:00,
2014-03-03 18:46:00,18.7,5.2,30.48,NNE,29,5.0,5.0,55,0.00,,,0.04,Wunderground v.1.15,2014-03-03 23:46:00,
2014-03-03 18:47:00,18.6,5.5,30.48,NNE,28,2.0,5.0,56,0.00,,,0.04,Wunderground v.1.15,2014-03-03 23:47:00,
2014-03-03 18:49:00,18.6,5.5,30.48,NNE,20,2.0,5.0,56,0.00,,,0.04,Wunderground v.1.15,2014-03-03 23:49:00,
2014-03-03 18:50:00,18.6,5.5,30.48,NNE,20,2.0,3.0,56,0.00,,,0.04,Wunderground v.1.15,2014-03-03 23:50:00,
2014-03-03 18:51:00,18.5,5.4,30.48,NNE,20,1.0,4.0,56,0.00,,,0.04,Wunderground v.1.15,2014-03-03 23:51:00,
2014-03-03 18:52:00,18.5,5.4,30.48,NNE,20,2.0,5.0,56,0.00,,,0.04,Wunderground v.1.15,2014-03-03 23:52:00,
2014-03-03 18:54:00,18.4,5.3,30.48,NNE,20,2.0,5.0,56,0.00,,,0.04,Wunderground v.1.15,2014-03-03 23:54:00,
2014-03-03 18:55:00,18.4,5.7,30.48,NNE,20,2.0,5.0,57,0.00,,,0.04,Wunderground v.1.15,2014-03-03 23:55:00,
2014-03-03 18:56:00,18.3,5.6,30.48,NNE,20,1.0,5.0,57,0.00,,,0.04,Wunderground v.1.15,2014-03-03 23:56:00,
2014-03-03 18:57:00,18.3,5.6,30.48,NNE,20,0.0,5.0,57,0.00,,,0.04,Wunderground v.1.15,2014-03-03 23:57:00,
2014-03-03 18:59:00,18.2,5.5,30.48,NNE,20,0.0,5.0,57,0.00,,,0.04,Wunderground v.1.15,2014-03-03 23:59:00,
2014-03-03 19:00:00,18.2,5.5,30.48,NNE,20,0.0,2.0,57,0.00,,,0.04,Wunderground v.1.15,2014-03-04 00:00:00,
2014-03-03 19:01:00,18.2,5.5,30.48,NNE,20,1.0,2.0,57,0.00,,,0.04,Wunderground v.1.15,2014-03-04 00:01:00,
2014-03-03 19:02:00,18.1,5.8,30.48,NNE,20,0.0,2.0,58,0.00,,,0.04,Wunderground v.1.15,2014-03-04 00:02:00,
2014-03-03 19:03:00,18.1,5.8,30.48,NNE,20,3.0,3.0,58,0.00,,,0.04,Wunderground v.1.15,2014-03-04 00:03:00,
2014-03-03 19:04:00,18.1,5.8,30.48,NNE,20,2.0,3.0,58,0.00,,,0.04,Wunderground v.1.15,2014-03-04 00:04:00,
2014-03-03 19:05:00,18.0,5.7,30.48,NNE,17,1.0,4.0,58,0.00,,,0.04,Wunderground v.1.15,2014-03-04 00:05:00,
2014-03-03 19:06:00,18.0,5.7,30.48,NNE,17,3.0,4.0,58,0.00,,,0.04,Wunderground v.1.15,2014-03-04 00:06:00,
2014-03-03 19:08:00,17.9,5.6,30.48,NNE,17,1.0,4.0,58,0.00,,,0.04,Wunderground v.1.15,2014-03-04 00:08:00,
2014-03-03 19:09:00,17.9,5.6,30.48,NNE,17,1.0,4.0,58,0.00,,,0.04,Wunderground v.1.15,2014-03-04 00:09:00,
2014-03-03 19:10:00,17.8,5.9,30.48,NNE,17,2.0,2.0,59,0.00,,,0.04,Wunderground v.1.15,2014-03-04 00:10:00,
2014-03-03 19:11:00,17.8,5.9,30.48,NNE,17,0.0,2.0,59,0.00,,,0.04,Wunderground v.1.15,2014-03-04 00:11:00,
2014-03-03 19:13:00,17.7,5.8,30.48,NNE,17,0.0,2.0,59,0.00,,,0.04,Wunderground v.1.15,2014-03-04 00:13:00,
2014-03-03 19:14:00,17.7,5.8,30.48,NNE,17,2.0,4.0,59,0.00,,,0.04,Wunderground v.1.15,2014-03-04 00:14:00,
2014-03-03 19:15:00,17.7,5.8,30.49,NNE,17,2.0,4.0,59,0.00,,,0.04,Wunderground v.1.15,2014-03-04 00:15:00,
2014-03-03 19:16:00,17.7,5.8,30.49,North,9,2.0,4.0,59,0.00,,,0.04,Wunderground v.1.15,2014-03-04 00:16:00,
2014-03-03 19:17:00,17.7,5.8,30.49,North,9,3.0,4.0,59,0.00,,,0.04,Wunderground v.1.15,2014-03-04 00:17:00,
2014-03-03 19:18:00,17.6,5.7,30.49,North,9,2.0,4.0,59,0.00,,,0.04,Wunderground v.1.15,2014-03-04 00:18:00,
2014-03-03 19:19:00,17.7,6.2,30.49,North,360,5.0,6.0,60,0.00,,,0.04,Wunderground v.1.15,2014-03-04 00:19:00,
2014-03-03 19:20:00,17.7,6.2,30.49,NNW,347,2.0,3.0,60,0.00,,,0.04,Wunderground v.1.15,2014-03-04 00:20:00,
2014-03-03 19:22:00,17.6,6.1,30.49,NNW,348,2.0,5.0,60,0.00,,,0.04,Wunderground v.1.15,2014-03-04 00:22:00,
2014-03-03 19:24:00,17.6,6.1,30.49,North,5,5.0,5.0,60,0.00,,,0.04,Wunderground v.1.15,2014-03-04 00:24:00,
2014-03-03 19:25:00,17.6,6.1,30.49,North,5,3.0,8.0,60,0.00,,,0.04,Wunderground v.1.15,2014-03-04 00:25:00,
2014-03-03 19:27:00,17.5,5.6,30.49,North,10,3.0,8.0,59,0.00,,,0.04,Wunderground v.1.15,2014-03-04 00:27:00,
2014-03-03 19:29:00,17.5,5.6,30.49,North,9,3.0,8.0,59,0.00,,,0.04,Wunderground v.1.15,2014-03-04 00:29:00,
2014-03-03 19:30:00,17.5,5.6,30.49,North,9,2.0,4.0,59,0.00,,,0.04,Wunderground v.1.15,2014-03-04 00:30:00,
2014-03-03 19:31:00,17.5,5.6,30.49,North,9,2.0,4.0,59,0.00,,,0.04,Wunderground v.1.15,2014-03-04 00:31:00,
2014-03-03 19:32:00,17.4,5.9,30.49,North,9,3.0,4.0,60,0.00,,,0.04,Wunderground v.1.15,2014-03-04 00:32:00,
2014-03-03 19:34:00,17.3,5.8,30.49,NNE,16,3.0,5.0,60,0.00,,,0.04,Wunderground v.1.15,2014-03-04 00:34:00,
2014-03-03 19:35:00,17.3,5.8,30.49,NNE,16,4.0,6.0,60,0.00,,,0.04,Wunderground v.1.15,2014-03-04 00:35:00,
2014-03-03 19:36:00,17.3,5.8,30.49,NNE,16,1.0,6.0,60,0.00,,,0.04,Wunderground v.1.15,2014-03-04 00:36:00,
2014-03-03 19:37:00,17.2,5.7,30.49,NNE,24,7.0,7.0,60,0.00,,,0.04,Wunderground v.1.15,2014-03-04 00:37:00,
2014-03-03 19:39:00,17.1,5.6,30.49,NNE,19,5.0,7.0,60,0.00,,,0.04,Wunderground v.1.15,2014-03-04 00:39:00,
2014-03-03 19:40:00,17.1,5.6,30.49,NNE,19,3.0,4.0,60,0.00,,,0.04,Wunderground v.1.15,2014-03-04 00:40:00,
2014-03-03 19:41:00,17.1,5.9,30.49,NNE,19,3.0,4.0,61,0.00,,,0.04,Wunderground v.1.15,2014-03-04 00:41:00,
2014-03-03 19:42:00,17.1,5.9,30.49,NNE,19,3.0,4.0,61,0.00,,,0.04,Wunderground v.1.15,2014-03-04 00:42:00,
2014-03-03 19:43:00,17.0,5.9,30.49,NNE,19,3.0,5.0,61,0.00,,,0.04,Wunderground v.1.15,2014-03-04 00:43:00,
2014-03-03 19:45:00,17.0,5.9,30.49,NNE,21,5.0,7.0,61,0.00,,,0.04,Wunderground v.1.15,2014-03-04 00:45:00,
2014-03-03 19:46:00,17.0,5.9,30.49,NNE,19,2.0,7.0,61,0.00,,,0.04,Wunderground v.1.15,2014-03-04 00:46:00,
2014-03-03 19:47:00,16.9,5.8,30.49,NNE,19,3.0,7.0,61,0.00,,,0.04,Wunderground v.1.15,2014-03-04 00:47:00,
2014-03-03 19:48:00,17.0,5.9,30.49,NNE,19,1.0,7.0,61,0.00,,,0.04,Wunderground v.1.15,2014-03-04 00:48:00,
2014-03-03 19:50:00,16.9,5.8,30.49,NNE,19,2.0,3.0,61,0.00,,,0.04,Wunderground v.1.15,2014-03-04 00:50:00,
2014-03-03 19:51:00,16.8,5.7,30.49,NNE,19,3.0,4.0,61,0.00,,,0.04,Wunderground v.1.15,2014-03-04 00:51:00,
2014-03-03 19:52:00,16.8,5.7,30.49,NNE,19,3.0,4.0,61,0.00,,,0.04,Wunderground v.1.15,2014-03-04 00:52:00,
2014-03-03 19:54:00,16.7,5.6,30.49,NNE,19,1.0,4.0,61,0.00,,,0.04,Wunderground v.1.15,2014-03-04 00:54:00,
2014-03-03 19:55:00,16.7,5.9,30.49,NNE,19,4.0,4.0,62,0.00,,,0.04,Wunderground v.1.15,2014-03-04 00:55:00,
2014-03-03 19:56:00,16.7,5.9,30.49,NNE,19,3.0,4.0,62,0.00,,,0.04,Wunderground v.1.15,2014-03-04 00:56:00,
2014-03-03 19:57:00,16.6,5.8,30.49,NNE,19,3.0,4.0,62,0.00,,,0.04,Wunderground v.1.15,2014-03-04 00:57:00,
2014-03-03 19:58:00,16.6,5.8,30.49,NNE,19,0.0,4.0,62,0.00,,,0.04,Wunderground v.1.15,2014-03-04 00:58:00,
2014-03-03 19:59:00,16.6,5.8,30.49,NNE,19,3.0,4.0,62,0.00,,,0.04,Wunderground v.1.15,2014-03-04 00:59:00,
2014-03-03 20:00:00,16.5,5.7,30.49,NNE,19,3.0,3.0,62,0.00,,,0.04,Wunderground v.1.15,2014-03-04 01:00:00,
2014-03-03 20:01:00,16.5,5.7,30.49,NNE,19,3.0,3.0,62,0.00,,,0.04,Wunderground v.1.15,2014-03-04 01:01:00,
2014-03-03 20:02:00,16.4,5.6,30.49,NNE,19,1.0,3.0,62,0.00,,,0.04,Wunderground v.1.15,2014-03-04 01:02:00,
2014-03-03 20:03:00,16.4,5.6,30.49,NNE,19,0.0,3.0,62,0.00,,,0.04,Wunderground v.1.15,2014-03-04 01:03:00,
2014-03-03 20:04:00,16.3,5.9,30.49,NNE,19,0.0,3.0,63,0.00,,,0.04,Wunderground v.1.15,2014-03-04 01:04:00,
2014-03-03 20:05:00,16.3,5.9,30.49,NNE,19,2.0,3.0,63,0.00,,,0.04,Wunderground v.1.15,2014-03-04 01:05:00,
2014-03-03 20:06:00,16.2,5.8,30.49,NNE,19,1.0,3.0,63,0.00,,,0.04,Wunderground v.1.15,2014-03-04 01:06:00,
2014-03-03 20:07:00,16.2,5.8,30.49,NNE,19,2.0,3.0,63,0.00,,,0.04,Wunderground v.1.15,2014-03-04 01:07:00,
2014-03-03 20:08:00,16.1,5.7,30.49,NNE,19,1.0,3.0,63,0.00,,,0.04,Wunderground v.1.15,2014-03-04 01:08:00,
2014-03-03 20:09:00,16.1,5.7,30.49,NNE,19,3.0,3.0,63,0.00,,,0.04,Wunderground v.1.15,2014-03-04 01:09:00,
2014-03-03 20:10:00,16.1,5.7,30.49,NNE,19,3.0,3.0,63,0.00,,,0.04,Wunderground v.1.15,2014-03-04 01:10:00,
2014-03-03 20:12:00,15.9,5.5,30.49,NNE,19,4.0,5.0,63,0.00,,,0.04,Wunderground v.1.15,2014-03-04 01:12:00,
2014-03-03 20:13:00,15.9,5.5,30.49,NNE,19,3.0,5.0,63,0.00,,,0.04,Wunderground v.1.15,2014-03-04 01:13:00,
2014-03-03 20:14:00,15.9,5.5,30.49,NNE,22,2.0,5.0,63,0.00,,,0.04,Wunderground v.1.15,2014-03-04 01:14:00,
2014-03-03 20:15:00,15.9,5.5,30.49,NNE,22,3.0,5.0,63,0.00,,,0.04,Wunderground v.1.15,2014-03-04 01:15:00,
2014-03-03 20:16:00,15.8,5.4,30.49,NNE,26,5.0,5.0,63,0.00,,,0.04,Wunderground v.1.15,2014-03-04 01:16:00,
2014-03-03 20:18:00,15.8,5.4,30.49,North,355,5.0,7.0,63,0.00,,,0.04,Wunderground v.1.15,2014-03-04 01:18:00,
2014-03-03 20:20:00,15.8,5.4,30.49,North,5,2.0,3.0,63,0.00,,,0.04,Wunderground v.1.15,2014-03-04 01:20:00,
2014-03-03 20:22:00,15.7,5.3,30.49,NNE,15,2.0,6.0,63,0.00,,,0.04,Wunderground v.1.15,2014-03-04 01:22:00,
2014-03-03 20:23:00,15.7,5.3,30.49,North,9,4.0,6.0,63,0.00,,,0.04,Wunderground v.1.15,2014-03-04 01:23:00,
2014-03-03 20:24:00,15.7,5.3,30.49,North,9,2.0,6.0,63,0.00,,,0.04,Wunderground v.1.15,2014-03-04 01:24:00,
2014-03-03 20:25:00,15.7,5.3,30.49,NNE,26,3.0,6.0,63,0.00,,,0.04,Wunderground v.1.15,2014-03-04 01:25:00,
2014-03-03 20:26:00,15.6,5.2,30.49,North,355,5.0,6.0,63,0.00,,,0.04,Wunderground v.1.15,2014-03-04 01:26:00,
2014-03-03 20:27:00,15.5,5.1,30.48,North,5,5.0,7.0,63,0.00,,,0.04,Wunderground v.1.15,2014-03-04 01:27:00,
2014-03-03 20:28:00,15.5,5.1,30.49,North,5,5.0,7.0,63,0.00,,,0.04,Wunderground v.1.15,2014-03-04 01:28:00,
2014-03-03 20:29:00,15.5,5.1,30.49,North,9,6.0,7.0,63,0.00,,,0.04,Wunderground v.1.15,2014-03-04 01:29:00,
2014-03-03 20:30:00,15.4,5.0,30.49,North,9,4.0,4.0,63,0.00,,,0.04,Wunderground v.1.15,2014-03-04 01:30:00,
2014-03-03 20:31:00,15.4,5.0,30.49,North,9,1.0,4.0,63,0.00,,,0.04,Wunderground v.1.15,2014-03-04 01:31:00,
2014-03-03 20:32:00,15.4,5.0,30.48,North,9,3.0,4.0,63,0.00,,,0.04,Wunderground v.1.15,2014-03-04 01:32:00,
2014-03-03 20:33:00,15.4,5.0,30.48,North,11,3.0,6.0,63,0.00,,,0.04,Wunderground v.1.15,2014-03-04 01:33:00,
2014-03-03 20:34:00,15.4,5.0,30.48,North,11,2.0,6.0,63,0.00,,,0.04,Wunderground v.1.15,2014-03-04 01:34:00,
2014-03-03 20:36:00,15.3,5.3,30.48,North,10,1.0,6.0,64,0.00,,,0.04,Wunderground v.1.15,2014-03-04 01:36:00,
2014-03-03 20:37:00,15.3,5.3,30.48,North,10,1.0,6.0,64,0.00,,,0.04,Wunderground v.1.15,2014-03-04 01:37:00,
2014-03-03 20:38:00,15.2,5.2,30.48,North,10,3.0,6.0,64,0.00,,,0.04,Wunderground v.1.15,2014-03-04 01:38:00,
2014-03-03 20:40:00,15.2,5.2,30.48,North,11,4.0,4.0,64,0.00,,,0.04,Wunderground v.1.15,2014-03-04 01:40:00,
2014-03-03 20:41:00,15.2,5.2,30.48,North,11,2.0,4.0,64,0.00,,,0.04,Wunderground v.1.15,2014-03-04 01:41:00,
2014-03-03 20:42:00,15.1,5.1,30.48,NNE,12,3.0,4.0,64,0.00,,,0.04,Wunderground v.1.15,2014-03-04 01:42:00,
2014-03-03 20:43:00,15.0,5.0,30.48,NNE,15,0.0,5.0,64,0.00,,,0.04,Wunderground v.1.15,2014-03-04 01:43:00,
2014-03-03 20:44:00,15.0,5.0,30.48,NNE,15,2.0,5.0,64,0.00,,,0.04,Wunderground v.1.15,2014-03-04 01:44:00,
2014-03-03 20:45:00,15.0,5.0,30.48,NNE,15,1.0,5.0,64,0.00,,,0.04,Wunderground v.1.15,2014-03-04 01:45:00,
2014-03-03 20:46:00,14.9,4.9,30.48,NNE,15,1.0,5.0,64,0.00,,,0.04,Wunderground v.1.15,2014-03-04 01:46:00,
2014-03-03 20:47:00,14.9,5.2,30.48,NNE,16,4.0,5.0,65,0.00,,,0.04,Wunderground v.1.15,2014-03-04 01:47:00,
2014-03-03 20:48:00,14.8,5.2,30.48,NNE,18,2.0,5.0,65,0.00,,,0.04,Wunderground v.1.15,2014-03-04 01:48:00,
2014-03-03 20:49:00,14.8,5.2,30.48,NNE,18,3.0,5.0,65,0.00,,,0.04,Wunderground v.1.15,2014-03-04 01:49:00,
2014-03-03 20:51:00,14.8,5.2,30.48,NNE,19,1.0,6.0,65,0.00,,,0.04,Wunderground v.1.15,2014-03-04 01:51:00,
2014-03-03 20:52:00,14.7,5.1,30.48,NNE,19,1.0,6.0,65,0.00,,,0.04,Wunderground v.1.15,2014-03-04 01:52:00,
2014-03-03 20:54:00,14.7,5.1,30.48,NNE,13,2.0,8.0,65,0.00,,,0.04,Wunderground v.1.15,2014-03-04 01:54:00,
2014-03-03 20:56:00,14.7,5.1,30.48,NNE,16,4.0,8.0,65,0.00,,,0.04,Wunderground v.1.15,2014-03-04 01:56:00,
2014-03-03 20:57:00,14.6,5.0,30.48,NE,38,5.0,9.0,65,0.00,,,0.04,Wunderground v.1.15,2014-03-04 01:57:00,
2014-03-03 20:58:00,14.6,5.0,30.48,NNE,32,1.0,9.0,65,0.00,,,0.04,Wunderground v.1.15,2014-03-04 01:58:00,
2014-03-03 20:59:00,14.6,5.3,30.48,NNE,32,0.0,9.0,66,0.00,,,0.04,Wunderground v.1.15,2014-03-04 01:59:00,
2014-03-03 21:01:00,14.6,5.3,30.48,NNE,32,2.0,3.0,66,0.00,,,0.04,Wunderground v.1.15,2014-03-04 02:01:00,
2014-03-03 21:02:00,14.5,5.2,30.48,NNE,32,0.0,3.0,66,0.00,,,0.04,Wunderground v.1.15,2014-03-04 02:02:00,
2014-03-03 21:03:00,14.5,5.2,30.48,NNE,32,0.0,3.0,66,0.00,,,0.04,Wunderground v.1.15,2014-03-04 02:03:00,
2014-03-03 21:04:00,14.5,5.2,30.48,NNE,32,2.0,3.0,66,0.00,,,0.04,Wunderground v.1.15,2014-03-04 02:04:00,
2014-03-03 21:05:00,14.5,5.2,30.48,NNE,32,3.0,3.0,66,0.00,,,0.04,Wunderground v.1.15,2014-03-04 02:05:00,
2014-03-03 21:06:00,14.4,5.1,30.48,NNE,32,3.0,4.0,66,0.00,,,0.04,Wunderground v.1.15,2014-03-04 02:06:00,
2014-03-03 21:07:00,14.3,5.0,30.48,NNE,22,5.0,5.0,66,0.00,,,0.04,Wunderground v.1.15,2014-03-04 02:07:00,
2014-03-03 21:08:00,14.3,5.0,30.48,NNE,20,3.0,5.0,66,0.00,,,0.04,Wunderground v.1.15,2014-03-04 02:08:00,
2014-03-03 21:10:00,14.3,5.0,30.48,NNE,14,3.0,4.0,66,0.00,,,0.04,Wunderground v.1.15,2014-03-04 02:10:00,
2014-03-03 21:12:00,14.3,5.0,30.48,NNE,30,4.0,6.0,66,0.00,,,0.04,Wunderground v.1.15,2014-03-04 02:12:00,
2014-03-03 21:13:00,14.3,5.0,30.48,NNE,19,4.0,6.0,66,0.00,,,0.04,Wunderground v.1.15,2014-03-04 02:13:00,
2014-03-03 21:14:00,14.3,5.0,30.48,NNE,15,2.0,6.0,66,0.00,,,0.04,Wunderground v.1.15,2014-03-04 02:14:00,
2014-03-03 21:15:00,14.3,5.0,30.48,NNE,15,3.0,6.0,66,0.00,,,0.04,Wunderground v.1.15,2014-03-04 02:15:00,
2014-03-03 21:18:00,14.3,5.0,30.48,North,9,1.0,7.0,66,0.00,,,0.04,Wunderground v.1.15,2014-03-04 02:18:00,
2014-03-03 21:19:00,14.2,4.9,30.48,North,355,5.0,7.0,66,0.00,,,0.04,Wunderground v.1.15,2014-03-04 02:19:00,
2014-03-03 21:20:00,14.2,4.9,30.48,North,355,2.0,4.0,66,0.00,,,0.04,Wunderground v.1.15,2014-03-04 02:20:00,
2014-03-03 21:24:00,14.1,4.8,30.48,North,355,1.0,4.0,66,0.00,,,0.04,Wunderground v.1.15,2014-03-04 02:24:00,
2014-03-03 21:25:00,14.1,4.8,30.48,North,355,0.0,4.0,66,0.00,,,0.04,Wunderground v.1.15,2014-03-04 02:25:00,
2014-03-03 21:29:00,14.0,5.1,30.48,North,355,2.0,4.0,67,0.00,,,0.04,Wunderground v.1.15,2014-03-04 02:29:00,
2014-03-03 21:30:00,13.9,5.0,30.48,North,355,1.0,2.0,67,0.00,,,0.04,Wunderground v.1.15,2014-03-04 02:30:00,
2014-03-03 21:34:00,13.8,4.9,30.48,North,355,1.0,3.0,67,0.00,,,0.04,Wunderground v.1.15,2014-03-04 02:34:00,
2014-03-03 21:35:00,13.8,4.9,30.48,North,355,1.0,3.0,67,0.00,,,0.04,Wunderground v.1.15,2014-03-04 02:35:00,
2014-03-03 21:36:00,13.8,4.9,30.48,North,355,1.0,3.0,67,0.00,,,0.04,Wunderground v.1.15,2014-03-04 02:36:00,
2014-03-03 21:39:00,13.7,4.8,30.48,North,355,1.0,3.0,67,0.00,,,0.04,Wunderground v.1.15,2014-03-04 02:39:00,
2014-03-03 21:41:00,13.7,5.1,30.48,North,355,0.0,1.0,68,0.00,,,0.04,Wunderground v.1.15,2014-03-04 02:41:00,
2014-03-03 21:45:00,13.6,5.0,30.48,North,355,0.0,1.0,68,0.00,,,0.04,Wunderground v.1.15,2014-03-04 02:45:00,
2014-03-03 21:46:00,13.5,4.9,30.48,North,355,0.0,1.0,68,0.00,,,0.04,Wunderground v.1.15,2014-03-04 02:46:00,
2014-03-03 21:50:00,13.5,5.2,30.48,North,355,0.0,0.0,69,0.00,,,0.04,Wunderground v.1.15,2014-03-04 02:50:00,
2014-03-03 21:51:00,13.4,5.1,30.48,North,355,0.0,0.0,69,0.00,,,0.04,Wunderground v.1.15,2014-03-04 02:51:00,
2014-03-03 21:52:00,13.5,5.2,30.48,North,355,0.0,0.0,69,0.00,,,0.04,Wunderground v.1.15,2014-03-04 02:52:00,
2014-03-03 21:56:00,13.3,5.0,30.47,North,355,0.0,0.0,69,0.00,,,0.04,Wunderground v.1.15,2014-03-04 02:56:00,
2014-03-03 21:57:00,13.3,5.0,30.47,North,355,0.0,1.0,69,0.00,,,0.04,Wunderground v.1.15,2014-03-04 02:57:00,
2014-03-03 21:58:00,13.2,4.9,30.47,North,355,0.0,1.0,69,0.00,,,0.04,Wunderground v.1.15,2014-03-04 02:58:00,
2014-03-03 22:01:00,13.2,5.2,30.47,North,355,0.0,0.0,70,0.00,,,0.04,Wunderground v.1.15,2014-03-04 03:01:00,
2014-03-03 22:02:00,13.2,5.2,30.47,North,355,0.0,0.0,70,0.00,,,0.04,Wunderground v.1.15,2014-03-04 03:02:00,
2014-03-03 22:03:00,13.2,5.2,30.47,North,355,0.0,0.0,70,0.00,,,0.04,Wunderground v.1.15,2014-03-04 03:03:00,
2014-03-03 22:04:00,13.1,5.1,30.47,North,355,0.0,0.0,70,0.00,,,0.04,Wunderground v.1.15,2014-03-04 03:04:00,
2014-03-03 22:07:00,13.1,5.1,30.47,North,355,0.0,0.0,70,0.00,,,0.04,Wunderground v.1.15,2014-03-04 03:07:00,
2014-03-03 22:08:00,13.1,5.1,30.47,North,355,0.0,0.0,70,0.00,,,0.04,Wunderground v.1.15,2014-03-04 03:08:00,
2014-03-03 22:09:00,13.1,5.5,30.47,North,355,0.0,0.0,71,0.00,,,0.04,Wunderground v.1.15,2014-03-04 03:09:00,
2014-03-03 22:12:00,13.1,5.5,30.47,North,355,0.0,0.0,71,0.00,,,0.04,Wunderground v.1.15,2014-03-04 03:12:00,
2014-03-03 22:13:00,13.1,5.5,30.47,North,355,0.0,0.0,71,0.00,,,0.04,Wunderground v.1.15,2014-03-04 03:13:00,
2014-03-03 22:15:00,13.1,5.5,30.47,North,355,0.0,0.0,71,0.00,,,0.04,Wunderground v.1.15,2014-03-04 03:15:00,
2014-03-03 22:17:00,13.1,5.8,30.47,North,355,0.0,0.0,72,0.00,,,0.04,Wunderground v.1.15,2014-03-04 03:17:00,
2014-03-03 22:18:00,13.1,5.8,30.47,North,355,0.0,0.0,72,0.00,,,0.04,Wunderground v.1.15,2014-03-04 03:18:00,
2014-03-03 22:20:00,13.0,5.7,30.47,North,355,0.0,0.0,72,0.00,,,0.04,Wunderground v.1.15,2014-03-04 03:20:00,
2014-03-03 22:22:00,13.0,5.7,30.46,North,355,0.0,0.0,72,0.00,,,0.04,Wunderground v.1.15,2014-03-04 03:22:00,
2014-03-03 22:23:00,13.0,5.7,30.46,North,355,0.0,0.0,72,0.00,,,0.04,Wunderground v.1.15,2014-03-04 03:23:00,
2014-03-03 22:26:00,12.9,5.6,30.47,North,355,0.0,0.0,72,0.00,,,0.04,Wunderground v.1.15,2014-03-04 03:26:00,
2014-03-03 22:28:00,12.9,5.9,30.47,North,355,0.0,2.0,73,0.00,,,0.04,Wunderground v.1.15,2014-03-04 03:28:00,
2014-03-03 22:29:00,12.9,5.9,30.47,North,355,0.0,2.0,73,0.00,,,0.04,Wunderground v.1.15,2014-03-04 03:29:00,
2014-03-03 22:30:00,12.9,5.9,30.47,North,355,0.0,0.0,73,0.00,,,0.04,Wunderground v.1.15,2014-03-04 03:30:00,
2014-03-03 22:31:00,12.9,5.9,30.47,North,355,0.0,0.0,73,0.00,,,0.04,Wunderground v.1.15,2014-03-04 03:31:00,
2014-03-03 22:33:00,12.8,5.8,30.47,North,355,0.0,0.0,73,0.00,,,0.04,Wunderground v.1.15,2014-03-04 03:33:00,
2014-03-03 22:34:00,12.8,5.8,30.47,North,355,0.0,0.0,73,0.00,,,0.04,Wunderground v.1.15,2014-03-04 03:34:00,
2014-03-03 22:35:00,12.8,5.8,30.47,North,355,0.0,1.0,73,0.00,,,0.04,Wunderground v.1.15,2014-03-04 03:35:00,
2014-03-03 22:36:00,12.8,5.8,30.47,North,355,0.0,1.0,73,0.00,,,0.04,Wunderground v.1.15,2014-03-04 03:36:00,
2014-03-03 22:38:00,12.8,5.8,30.46,North,355,0.0,1.0,73,0.00,,,0.04,Wunderground v.1.15,2014-03-04 03:38:00,
2014-03-03 22:39:00,12.7,5.7,30.46,NNE,19,4.0,4.0,73,0.00,,,0.04,Wunderground v.1.15,2014-03-04 03:39:00,
2014-03-03 22:40:00,12.8,5.8,30.46,NE,46,4.0,5.0,73,0.00,,,0.04,Wunderground v.1.15,2014-03-04 03:40:00,
2014-03-03 22:41:00,12.8,5.5,30.46,ENE,71,2.0,5.0,72,0.00,,,0.04,Wunderground v.1.15,2014-03-04 03:41:00,
2014-03-03 22:43:00,12.9,5.6,30.46,ENE,70,3.0,5.0,72,0.00,,,0.04,Wunderground v.1.15,2014-03-04 03:43:00,
2014-03-03 22:44:00,13.0,5.7,30.46,NNE,23,1.0,5.0,72,0.00,,,0.04,Wunderground v.1.15,2014-03-04 03:44:00,
2014-03-03 22:45:00,13.0,5.7,30.46,NNE,23,1.0,5.0,72,0.00,,,0.04,Wunderground v.1.15,2014-03-04 03:45:00,
2014-03-03 22:47:00,13.0,5.7,30.46,NNE,33,2.0,5.0,72,0.00,,,0.04,Wunderground v.1.15,2014-03-04 03:47:00,
2014-03-03 22:48:00,13.1,5.5,30.46,NNE,33,2.0,5.0,71,0.00,,,0.04,Wunderground v.1.15,2014-03-04 03:48:00,
2014-03-03 22:49:00,13.1,5.5,30.46,NNE,33,0.0,5.0,71,0.00,,,0.04,Wunderground v.1.15,2014-03-04 03:49:00,
2014-03-03 22:50:00,13.1,5.5,30.46,NNE,33,0.0,2.0,71,0.00,,,0.04,Wunderground v.1.15,2014-03-04 03:50:00,
2014-03-03 22:52:00,13.1,5.5,30.47,NNE,33,1.0,2.0,71,0.00,,,0.04,Wunderground v.1.15,2014-03-04 03:52:00,
2014-03-03 22:54:00,13.1,5.5,30.47,NNE,33,0.0,2.0,71,0.00,,,0.04,Wunderground v.1.15,2014-03-04 03:54:00,
2014-03-03 22:55:00,13.1,5.5,30.46,NNE,33,0.0,2.0,71,0.00,,,0.04,Wunderground v.1.15,2014-03-04 03:55:00,
2014-03-03 22:57:00,13.1,5.5,30.47,NNE,33,0.0,2.0,71,0.00,,,0.04,Wunderground v.1.15,2014-03-04 03:57:00,
2014-03-03 22:59:00,13.1,5.5,30.47,NNE,33,0.0,2.0,71,0.00,,,0.04,Wunderground v.1.15,2014-03-04 03:59:00,
2014-03-03 23:00:00,13.1,5.5,30.47,NNE,33,0.0,0.0,71,0.00,,,0.04,Wunderground v.1.15,2014-03-04 04:00:00,
2014-03-03 23:01:00,13.0,5.4,30.47,NNE,33,0.0,0.0,71,0.00,,,0.04,Wunderground v.1.15,2014-03-04 04:01:00,
2014-03-03 23:02:00,13.0,5.4,30.47,NNE,33,3.0,3.0,71,0.00,,,0.04,Wunderground v.1.15,2014-03-04 04:02:00,
2014-03-03 23:04:00,13.0,5.4,30.47,NNE,33,1.0,3.0,71,0.00,,,0.04,Wunderground v.1.15,2014-03-04 04:04:00,
2014-03-03 23:05:00,12.9,5.3,30.47,NNE,33,0.0,3.0,71,0.00,,,0.04,Wunderground v.1.15,2014-03-04 04:05:00,
2014-03-03 23:06:00,13.0,5.4,30.47,NNE,33,0.0,3.0,71,0.00,,,0.04,Wunderground v.1.15,2014-03-04 04:06:00,
2014-03-03 23:07:00,13.0,5.4,30.46,NNE,33,2.0,3.0,71,0.00,,,0.04,Wunderground v.1.15,2014-03-04 04:07:00,
2014-03-03 23:08:00,13.0,5.4,30.46,NNE,33,2.0,3.0,71,0.00,,,0.04,Wunderground v.1.15,2014-03-04 04:08:00,
2014-03-03 23:09:00,12.9,5.3,30.47,NNE,33,1.0,3.0,71,0.00,,,0.04,Wunderground v.1.15,2014-03-04 04:09:00,
2014-03-03 23:10:00,13.0,5.4,30.47,NNE,33,1.0,1.0,71,0.00,,,0.04,Wunderground v.1.15,2014-03-04 04:10:00,
2014-03-03 23:11:00,13.0,5.4,30.47,NNE,33,1.0,2.0,71,0.00,,,0.04,Wunderground v.1.15,2014-03-04 04:11:00,
2014-03-03 23:13:00,12.9,5.3,30.47,NNE,33,0.0,2.0,71,0.00,,,0.04,Wunderground v.1.15,2014-03-04 04:13:00,
2014-03-03 23:14:00,12.9,5.3,30.46,NNE,33,2.0,2.0,71,0.00,,,0.04,Wunderground v.1.15,2014-03-04 04:14:00,
2014-03-03 23:15:00,12.9,5.3,30.46,NNE,33,2.0,2.0,71,0.00,,,0.04,Wunderground v.1.15,2014-03-04 04:15:00,
2014-03-03 23:16:00,12.9,5.3,30.46,NNE,33,2.0,3.0,71,0.00,,,0.04,Wunderground v.1.15,2014-03-04 04:16:00,
2014-03-03 23:17:00,12.9,5.3,30.46,NNE,33,1.0,3.0,71,0.00,,,0.04,Wunderground v.1.15,2014-03-04 04:17:00,
2014-03-03 23:18:00,12.9,5.3,30.46,NNE,33,3.0,3.0,71,0.00,,,0.04,Wunderground v.1.15,2014-03-04 04:18:00,
2014-03-03 23:20:00,12.9,5.3,30.46,NNE,33,3.0,3.0,71,0.00,,,0.04,Wunderground v.1.15,2014-03-04 04:20:00,
2014-03-03 23:21:00,12.9,5.3,30.46,NNE,33,2.0,3.0,71,0.00,,,0.04,Wunderground v.1.15,2014-03-04 04:21:00,
2014-03-03 23:22:00,12.9,5.3,30.46,NNE,33,1.0,3.0,71,0.00,,,0.04,Wunderground v.1.15,2014-03-04 04:22:00,
2014-03-03 23:23:00,12.9,5.3,30.46,NE,38,2.0,3.0,71,0.00,,,0.04,Wunderground v.1.15,2014-03-04 04:23:00,
2014-03-03 23:25:00,12.9,5.3,30.46,NE,35,3.0,6.0,71,0.00,,,0.04,Wunderground v.1.15,2014-03-04 04:25:00,
2014-03-03 23:26:00,12.9,5.3,30.46,NE,36,4.0,6.0,71,0.00,,,0.04,Wunderground v.1.15,2014-03-04 04:26:00,
2014-03-03 23:27:00,12.9,5.3,30.46,NE,36,4.0,6.0,71,0.00,,,0.04,Wunderground v.1.15,2014-03-04 04:27:00,
2014-03-03 23:28:00,12.9,5.3,30.46,NE,36,2.0,6.0,71,0.00,,,0.04,Wunderground v.1.15,2014-03-04 04:28:00,
2014-03-03 23:29:00,12.8,4.9,30.46,NE,42,3.0,6.0,70,0.00,,,0.04,Wunderground v.1.15,2014-03-04 04:29:00,
2014-03-03 23:30:00,12.9,5.0,30.46,NE,34,2.0,3.0,70,0.00,,,0.04,Wunderground v.1.15,2014-03-04 04:30:00,
2014-03-03 23:31:00,12.9,5.3,30.46,NE,36,2.0,3.0,71,0.00,,,0.04,Wunderground v.1.15,2014-03-04 04:31:00,
2014-03-03 23:32:00,12.9,5.3,30.46,NE,36,1.0,3.0,71,0.00,,,0.04,Wunderground v.1.15,2014-03-04 04:32:00,
2014-03-03 23:33:00,12.9,5.3,30.46,NE,36,2.0,3.0,71,0.00,,,0.04,Wunderground v.1.15,2014-03-04 04:33:00,
2014-03-03 23:34:00,12.9,5.0,30.46,NE,36,1.0,3.0,70,0.00,,,0.04,Wunderground v.1.15,2014-03-04 04:34:00,
2014-03-03 23:35:00,12.9,5.3,30.46,ENE,68,3.0,4.0,71,0.00,,,0.04,Wunderground v.1.15,2014-03-04 04:35:00,
2014-03-03 23:37:00,12.9,5.3,30.46,ENE,74,4.0,5.0,71,0.00,,,0.04,Wunderground v.1.15,2014-03-04 04:37:00,
2014-03-03 23:38:00,12.8,5.2,30.46,ENE,74,3.0,5.0,71,0.00,,,0.04,Wunderground v.1.15,2014-03-04 04:38:00,
2014-03-03 23:39:00,12.8,5.2,30.46,ENE,74,2.0,5.0,71,0.00,,,0.04,Wunderground v.1.15,2014-03-04 04:39:00,
2014-03-03 23:40:00,12.9,5.3,30.46,ENE,74,3.0,4.0,71,0.00,,,0.04,Wunderground v.1.15,2014-03-04 04:40:00,
2014-03-03 23:41:00,12.9,5.3,30.46,ENE,74,3.0,4.0,71,0.00,,,0.04,Wunderground v.1.15,2014-03-04 04:41:00,
2014-03-03 23:42:00,12.8,5.2,30.46,ENE,69,3.0,4.0,71,0.00,,,0.04,Wunderground v.1.15,2014-03-04 04:42:00,
2014-03-03 23:43:00,12.8,5.2,30.46,NNE,29,4.0,4.0,71,0.00,,,0.04,Wunderground v.1.15,2014-03-04 04:43:00,
2014-03-03 23:44:00,12.8,5.2,30.46,NNE,30,3.0,4.0,71,0.00,,,0.04,Wunderground v.1.15,2014-03-04 04:44:00,
2014-03-03 23:46:00,12.8,5.2,30.46,NNE,30,1.0,4.0,71,0.00,,,0.04,Wunderground v.1.15,2014-03-04 04:46:00,
2014-03-03 23:47:00,12.8,5.2,30.46,NNE,30,2.0,4.0,71,0.00,,,0.04,Wunderground v.1.15,2014-03-04 04:47:00,
2014-03-03 23:48:00,12.8,5.2,30.46,NNE,30,0.0,4.0,71,0.00,,,0.04,Wunderground v.1.15,2014-03-04 04:48:00,
2014-03-03 23:49:00,12.7,5.1,30.46,East,80,3.0,4.0,71,0.00,,,0.04,Wunderground v.1.15,2014-03-04 04:49:00,
2014-03-03 23:50:00,12.7,5.1,30.46,East,80,2.0,2.0,71,0.00,,,0.04,Wunderground v.1.15,2014-03-04 04:50:00,
2014-03-03 23:51:00,12.7,5.1,30.46,ENE,67,1.0,2.0,71,0.00,,,0.04,Wunderground v.1.15,2014-03-04 04:51:00,
2014-03-03 23:52:00,12.7,5.1,30.46,ENE,67,1.0,2.0,71,0.00,,,0.04,Wunderground v.1.15,2014-03-04 04:52:00,
2014-03-03 23:54:00,12.6,5.0,30.46,ENE,67,0.0,2.0,71,0.00,,,0.04,Wunderground v.1.15,2014-03-04 04:54:00,
2014-03-03 23:55:00,12.6,5.0,30.46,ENE,65,2.0,3.0,71,0.00,,,0.04,Wunderground v.1.15,2014-03-04 04:55:00,
2014-03-03 23:56:00,12.6,5.0,30.46,ENE,65,0.0,3.0,71,0.00,,,0.04,Wunderground v.1.15,2014-03-04 04:56:00,
2014-03-03 23:58:00,12.5,4.9,30.46,ENE,65,0.0,3.0,71,0.00,,,0.04,Wunderground v.1.15,2014-03-04 04:58:00,
2014-03-03 23:59:00,12.5,4.9,30.46,ENE,65,1.0,3.0,71,0.00,,,0.04,Wunderground v.1.15,2014-03-04 04:59:00,